Time,TemperatureF,DewpointF,PressureIn,WindDirection,WindDirectionDegrees,WindSpeedMPH,WindSpeedGustMPH,Humidity,HourlyPrecipIn,Conditions,Clouds,dailyrainin,SolarRadiationWatts/m^2,SoftwareType,DateUTC
2013-01-15 00:00:00,38.9,36.5,30.17,North,360,3.0,6.0,91,0.00,,---,0.00,0.00,VWS V14.01,2013-01-15 06:00:00,
2013-01-15 00:01:00,38.9,36.5,30.17,NNE,24,1.0,2.0,91,0.00,,---,0.00,0.00,VWS V14.01,2013-01-15 06:01:00,
2013-01-15 00:02:00,38.9,36.5,30.17,NNE,24,3.0,3.0,91,0.00,,---,0.00,0.00,VWS V14.01,2013-01-15 06:02:00,
2013-01-15 00:04:00,38.9,36.5,30.17,NE,45,2.0,6.0,91,0.00,,---,0.00,0.00,VWS V14.01,2013-01-15 06:04:00,
2013-01-15 00:06:00,38.9,36.5,30.17,NE,35,0.0,6.0,91,0.00,,---,0.00,0.00,VWS V14.01,2013-01-15 06:06:00,
2013-01-15 00:07:00,38.9,36.5,30.17,NNW,348,3.0,6.0,91,0.00,,---,0.00,0.00,VWS V14.01,2013-01-15 06:07:00,
2013-01-15 00:09:00,38.8,36.4,30.17,North,360,2.0,6.0,91,0.00,,---,0.00,0.00,VWS V14.01,2013-01-15 06:09:00,
2013-01-15 00:12:00,38.9,36.5,30.17,NNE,32,0.0,6.0,91,0.00,,---,0.00,0.00,VWS V14.01,2013-01-15 06:12:00,
2013-01-15 00:14:00,38.8,36.4,30.17,NNE,12,3.0,6.0,91,0.00,,---,0.00,0.00,VWS V14.01,2013-01-15 06:14:00,
2013-01-15 00:17:00,38.8,36.4,30.17,NE,35,1.0,6.0,91,0.00,,---,0.00,0.00,VWS V14.01,2013-01-15 06:17:00,
2013-01-15 00:19:00,38.8,36.4,30.17,NW,320,0.0,6.0,91,0.00,,---,0.00,0.00,VWS V14.01,2013-01-15 06:19:00,
2013-01-15 00:20:00,38.8,36.4,30.17,NW,320,0.0,6.0,91,0.00,,---,0.00,0.00,VWS V14.01,2013-01-15 06:20:00,
2013-01-15 00:24:00,38.8,36.4,30.16,North,5,2.0,6.0,91,0.00,,---,0.00,0.00,VWS V14.01,2013-01-15 06:24:00,
2013-01-15 00:26:00,38.8,36.4,30.16,NW,319,1.0,6.0,91,0.00,,---,0.00,0.00,VWS V14.01,2013-01-15 06:26:00,
2013-01-15 00:29:00,38.7,36.3,30.16,North,355,4.0,9.0,91,0.00,,---,0.00,0.00,VWS V14.01,2013-01-15 06:29:00,
2013-01-15 00:30:00,38.7,36.3,30.16,North,9,2.0,9.0,91,0.00,,---,0.00,0.00,VWS V14.01,2013-01-15 06:30:00,
2013-01-15 00:31:00,38.7,36.3,30.16,NNW,344,2.0,4.0,91,0.00,,---,0.00,0.00,VWS V14.01,2013-01-15 06:31:00,
2013-01-15 00:32:00,38.7,36.3,30.16,NNW,344,0.0,4.0,91,0.00,,---,0.00,0.00,VWS V14.01,2013-01-15 06:32:00,
2013-01-15 00:34:00,38.7,36.3,30.16,NW,311,2.0,4.0,91,0.00,,---,0.00,0.00,VWS V14.01,2013-01-15 06:34:00,
2013-01-15 00:36:00,38.7,36.3,30.16,NW,311,0.0,4.0,91,0.00,,---,0.00,0.00,VWS V14.01,2013-01-15 06:36:00,
2013-01-15 00:37:00,38.7,36.3,30.16,NW,311,0.0,4.0,91,0.00,,---,0.00,0.00,VWS V14.01,2013-01-15 06:37:00,
2013-01-15 00:40:00,38.7,36.3,30.16,North,355,0.0,4.0,91,0.00,,---,0.00,0.00,VWS V14.01,2013-01-15 06:40:00,
2013-01-15 00:42:00,38.7,36.3,30.16,North,355,0.0,4.0,91,0.00,,---,0.00,0.00,VWS V14.01,2013-01-15 06:42:00,
2013-01-15 00:43:00,38.7,36.3,30.16,North,355,1.0,4.0,91,0.00,,---,0.00,0.00,VWS V14.01,2013-01-15 06:43:00,
2013-01-15 00:47:00,38.7,36.3,30.16,NNW,346,3.0,4.0,91,0.00,,---,0.00,0.00,VWS V14.01,2013-01-15 06:47:00,
2013-01-15 00:49:00,38.7,36.3,30.16,NNE,13,0.0,5.0,91,0.00,,---,0.00,0.00,VWS V14.01,2013-01-15 06:49:00,
2013-01-15 00:50:00,38.7,36.3,30.16,NNE,13,0.0,5.0,91,0.00,,---,0.00,0.00,VWS V14.01,2013-01-15 06:50:00,
2013-01-15 00:53:00,38.7,36.3,30.15,NNW,341,2.0,5.0,91,0.00,,---,0.00,0.00,VWS V14.01,2013-01-15 06:53:00,
2013-01-15 00:55:00,38.7,36.3,30.15,NNW,334,0.0,5.0,91,0.00,,---,0.00,0.00,VWS V14.01,2013-01-15 06:55:00,
2013-01-15 00:56:00,38.7,36.3,30.15,NNW,337,0.0,5.0,91,0.00,,---,0.00,0.00,VWS V14.01,2013-01-15 06:56:00,
2013-01-15 01:00:00,38.7,36.3,30.15,NNE,20,2.0,2.0,91,0.00,,---,0.00,0.00,VWS V14.01,2013-01-15 07:00:00,
2013-01-15 01:01:00,38.7,36.3,30.15,NNE,20,0.0,2.0,91,0.00,,---,0.00,0.00,VWS V14.01,2013-01-15 07:01:00,
2013-01-15 01:05:00,38.7,36.3,30.15,North,360,2.0,7.0,91,0.00,,---,0.00,0.00,VWS V14.01,2013-01-15 07:05:00,
2013-01-15 01:06:00,38.6,36.2,30.15,North,360,0.0,7.0,91,0.00,,---,0.00,0.00,VWS V14.01,2013-01-15 07:06:00,
2013-01-15 01:07:00,38.6,36.2,30.15,North,360,0.0,7.0,91,0.00,,---,0.00,0.00,VWS V14.01,2013-01-15 07:07:00,
2013-01-15 01:11:00,38.6,36.2,30.16,ENE,59,0.0,7.0,91,0.00,,---,0.00,0.00,VWS V14.01,2013-01-15 07:11:00,
2013-01-15 01:12:00,38.7,36.3,30.16,ENE,59,0.0,7.0,91,0.00,,---,0.00,0.00,VWS V14.01,2013-01-15 07:12:00,
2013-01-15 01:16:00,38.7,36.3,30.15,ENE,58,0.0,7.0,91,0.00,,---,0.00,0.00,VWS V14.01,2013-01-15 07:16:00,
2013-01-15 01:17:00,38.6,36.2,30.15,ENE,58,0.0,7.0,91,0.00,,---,0.00,0.00,VWS V14.01,2013-01-15 07:17:00,
2013-01-15 01:18:00,38.6,36.2,30.15,ENE,59,0.0,7.0,91,0.00,,---,0.00,0.00,VWS V14.01,2013-01-15 07:18:00,
2013-01-15 01:22:00,38.6,36.2,30.14,West,272,0.0,7.0,91,0.00,,---,0.00,0.00,VWS V14.01,2013-01-15 07:22:00,
2013-01-15 01:23:00,38.6,36.2,30.14,North,11,1.0,7.0,91,0.00,,---,0.00,0.00,VWS V14.01,2013-01-15 07:23:00,
2013-01-15 01:24:00,38.6,36.2,30.15,North,11,0.0,7.0,91,0.00,,---,0.00,0.00,VWS V14.01,2013-01-15 07:24:00,
2013-01-15 01:28:00,38.6,36.2,30.15,NNE,15,0.0,7.0,91,0.00,,---,0.00,0.00,VWS V14.01,2013-01-15 07:28:00,
2013-01-15 01:30:00,38.7,36.3,30.15,NW,324,2.0,3.0,91,0.00,,---,0.00,0.00,VWS V14.01,2013-01-15 07:30:00,
2013-01-15 01:33:00,38.6,36.2,30.15,NNE,24,2.0,3.0,91,0.00,,---,0.00,0.00,VWS V14.01,2013-01-15 07:33:00,
2013-01-15 01:34:00,38.6,36.2,30.15,NE,34,0.0,4.0,91,0.00,,---,0.00,0.00,VWS V14.01,2013-01-15 07:34:00,
2013-01-15 01:35:00,38.6,36.2,30.15,NE,36,1.0,4.0,91,0.00,,---,0.00,0.00,VWS V14.01,2013-01-15 07:35:00,
2013-01-15 01:39:00,38.7,36.3,30.15,NNE,26,1.0,4.0,91,0.00,,---,0.00,0.00,VWS V14.01,2013-01-15 07:39:00,
2013-01-15 01:41:00,38.7,36.3,30.15,North,360,1.0,6.0,91,0.00,,---,0.00,0.00,VWS V14.01,2013-01-15 07:41:00,
2013-01-15 01:45:00,38.7,36.3,30.15,NNE,12,3.0,6.0,91,0.00,,---,0.00,0.00,VWS V14.01,2013-01-15 07:45:00,
2013-01-15 01:46:00,38.7,36.3,30.14,NNE,12,1.0,6.0,91,0.00,,---,0.00,0.00,VWS V14.01,2013-01-15 07:46:00,
2013-01-15 01:47:00,38.7,36.3,30.14,NNW,331,3.0,6.0,91,0.00,,---,0.00,0.00,VWS V14.01,2013-01-15 07:47:00,
2013-01-15 01:50:00,38.7,36.3,30.14,North,351,3.0,6.0,91,0.00,,---,0.00,0.00,VWS V14.01,2013-01-15 07:50:00,
2013-01-15 01:52:00,38.6,36.2,30.14,NE,56,1.0,7.0,91,0.00,,---,0.00,0.00,VWS V14.01,2013-01-15 07:52:00,
2013-01-15 01:54:00,38.6,36.2,30.14,NNE,15,1.0,7.0,91,0.00,,---,0.00,0.00,VWS V14.01,2013-01-15 07:54:00,
2013-01-15 01:55:00,38.6,36.2,30.14,NE,38,1.0,7.0,91,0.00,,---,0.00,0.00,VWS V14.01,2013-01-15 07:55:00,
2013-01-15 01:58:00,38.6,36.2,30.14,NE,38,0.0,7.0,91,0.00,,---,0.00,0.00,VWS V14.01,2013-01-15 07:58:00,
2013-01-15 01:59:00,38.7,36.3,30.14,NE,38,0.0,7.0,91,0.00,,---,0.00,0.00,VWS V14.01,2013-01-15 07:59:00,
2013-01-15 02:00:00,38.6,36.2,30.14,NE,38,0.0,7.0,91,0.00,,---,0.00,0.00,VWS V14.01,2013-01-15 08:00:00,
2013-01-15 02:02:00,38.7,36.3,30.14,NE,38,0.0,0.0,91,0.00,,---,0.00,0.00,VWS V14.01,2013-01-15 08:02:00,
2013-01-15 02:03:00,38.7,36.3,30.14,NE,38,0.0,2.0,91,0.00,,---,0.00,0.00,VWS V14.01,2013-01-15 08:03:00,
2013-01-15 02:04:00,38.7,36.3,30.14,NE,38,0.0,2.0,91,0.00,,---,0.00,0.00,VWS V14.01,2013-01-15 08:04:00,
2013-01-15 02:07:00,38.7,36.6,30.14,NW,320,0.0,2.0,92,0.00,,---,0.00,0.00,VWS V14.01,2013-01-15 08:07:00,
2013-01-15 02:09:00,38.7,36.3,30.14,NNE,30,0.0,4.0,91,0.00,,---,0.00,0.00,VWS V14.01,2013-01-15 08:09:00,
2013-01-15 02:10:00,38.7,36.3,30.14,NNE,30,0.0,4.0,91,0.00,,---,0.00,0.00,VWS V14.01,2013-01-15 08:10:00,
2013-01-15 02:12:00,38.7,36.3,30.14,NNE,21,0.0,6.0,91,0.00,,---,0.00,0.00,VWS V14.01,2013-01-15 08:12:00,
2013-01-15 02:14:00,38.7,36.3,30.14,NE,43,1.0,6.0,91,0.00,,---,0.00,0.00,VWS V14.01,2013-01-15 08:14:00,
2013-01-15 02:16:00,38.7,36.3,30.14,NNW,339,4.0,6.0,91,0.00,,---,0.00,0.00,VWS V14.01,2013-01-15 08:16:00,
2013-01-15 02:17:00,38.7,36.3,30.13,North,5,0.0,6.0,91,0.00,,---,0.00,0.00,VWS V14.01,2013-01-15 08:17:00,
2013-01-15 02:18:00,38.7,36.3,30.13,NNE,33,2.0,6.0,91,0.00,,---,0.00,0.00,VWS V14.01,2013-01-15 08:18:00,
2013-01-15 02:19:00,38.6,36.2,30.13,North,360,0.0,6.0,91,0.00,,---,0.00,0.00,VWS V14.01,2013-01-15 08:19:00,
2013-01-15 02:22:00,38.6,36.2,30.13,North,9,4.0,6.0,91,0.00,,---,0.00,0.00,VWS V14.01,2013-01-15 08:22:00,
2013-01-15 02:25:00,38.6,36.2,30.13,North,360,0.0,6.0,91,0.00,,---,0.00,0.00,VWS V14.01,2013-01-15 08:25:00,
2013-01-15 02:27:00,38.6,36.2,30.13,North,360,0.0,6.0,91,0.00,,---,0.00,0.00,VWS V14.01,2013-01-15 08:27:00,
2013-01-15 02:30:00,38.6,36.2,30.14,North,5,0.0,0.0,91,0.00,,---,0.00,0.00,VWS V14.01,2013-01-15 08:30:00,
2013-01-15 02:33:00,38.6,36.2,30.14,North,360,1.0,3.0,91,0.00,,---,0.00,0.00,VWS V14.01,2013-01-15 08:33:00,
2013-01-15 02:35:00,38.6,36.2,30.13,North,360,0.0,3.0,91,0.00,,---,0.00,0.00,VWS V14.01,2013-01-15 08:35:00,
2013-01-15 02:37:00,38.6,36.2,30.13,NE,48,1.0,3.0,91,0.00,,---,0.00,0.00,VWS V14.01,2013-01-15 08:37:00,
2013-01-15 02:40:00,38.6,36.2,30.13,NE,39,3.0,5.0,91,0.00,,---,0.00,0.00,VWS V14.01,2013-01-15 08:40:00,
2013-01-15 02:41:00,38.6,36.2,30.13,NE,39,1.0,5.0,91,0.00,,---,0.00,0.00,VWS V14.01,2013-01-15 08:41:00,
2013-01-15 02:45:00,38.6,36.2,30.13,NE,35,2.0,5.0,91,0.00,,---,0.00,0.00,VWS V14.01,2013-01-15 08:45:00,
2013-01-15 02:46:00,38.5,36.1,30.13,NE,50,0.0,5.0,91,0.00,,---,0.00,0.00,VWS V14.01,2013-01-15 08:46:00,
2013-01-15 02:47:00,38.5,36.1,30.13,North,355,3.0,5.0,91,0.00,,---,0.00,0.00,VWS V14.01,2013-01-15 08:47:00,
2013-01-15 02:50:00,38.5,36.1,30.13,NW,323,0.0,5.0,91,0.00,,---,0.00,0.00,VWS V14.01,2013-01-15 08:50:00,
2013-01-15 02:52:00,38.5,36.1,30.13,NW,323,0.0,5.0,91,0.00,,---,0.00,0.00,VWS V14.01,2013-01-15 08:52:00,
2013-01-15 02:53:00,38.5,36.1,30.13,North,5,0.0,5.0,91,0.00,,---,0.00,0.00,VWS V14.01,2013-01-15 08:53:00,
2013-01-15 02:56:00,38.4,36.0,30.13,NNW,332,3.0,7.0,91,0.00,,---,0.00,0.00,VWS V14.01,2013-01-15 08:56:00,
2013-01-15 02:57:00,38.4,36.0,30.13,NNW,333,2.0,7.0,91,0.00,,---,0.00,0.00,VWS V14.01,2013-01-15 08:57:00,
2013-01-15 02:58:00,38.4,36.0,30.13,NNW,339,7.0,7.0,91,0.00,,---,0.00,0.00,VWS V14.01,2013-01-15 08:58:00,
2013-01-15 03:00:00,38.4,36.0,30.13,NNE,12,0.0,7.0,91,0.00,,---,0.00,0.00,VWS V14.01,2013-01-15 09:00:00,
2013-01-15 03:01:00,38.4,36.0,30.13,NNE,16,1.0,4.0,91,0.00,,---,0.00,0.00,VWS V14.01,2013-01-15 09:01:00,
2013-01-15 03:03:00,38.4,36.0,30.12,North,355,2.0,7.0,91,0.00,,---,0.00,0.00,VWS V14.01,2013-01-15 09:03:00,
2013-01-15 03:04:00,38.4,36.0,30.13,NNE,21,5.0,7.0,91,0.00,,---,0.00,0.00,VWS V14.01,2013-01-15 09:04:00,
2013-01-15 03:07:00,38.4,36.0,30.13,NNW,333,0.0,7.0,91,0.00,,---,0.00,0.00,VWS V14.01,2013-01-15 09:07:00,
2013-01-15 03:08:00,38.4,36.0,30.13,NNW,333,0.0,7.0,91,0.00,,---,0.00,0.00,VWS V14.01,2013-01-15 09:08:00,
2013-01-15 03:09:00,38.4,36.0,30.13,NNW,333,2.0,7.0,91,0.00,,---,0.00,0.00,VWS V14.01,2013-01-15 09:09:00,
2013-01-15 03:10:00,38.4,36.0,30.13,North,355,0.0,7.0,91,0.00,,---,0.00,0.00,VWS V14.01,2013-01-15 09:10:00,
2013-01-15 03:14:00,38.4,36.0,30.13,North,355,0.0,7.0,91,0.00,,---,0.00,0.00,VWS V14.01,2013-01-15 09:14:00,
2013-01-15 03:15:00,38.4,36.0,30.13,North,355,1.0,7.0,91,0.00,,---,0.00,0.00,VWS V14.01,2013-01-15 09:15:00,
2013-01-15 03:16:00,38.4,36.0,30.13,North,355,0.0,7.0,91,0.00,,---,0.00,0.00,VWS V14.01,2013-01-15 09:16:00,
2013-01-15 03:20:00,38.3,35.9,30.13,NNW,327,2.0,7.0,91,0.00,,---,0.00,0.00,VWS V14.01,2013-01-15 09:20:00,
2013-01-15 03:21:00,38.4,36.0,30.13,NW,325,1.0,7.0,91,0.00,,---,0.00,0.00,VWS V14.01,2013-01-15 09:21:00,
2013-01-15 03:22:00,38.3,35.9,30.13,NW,325,0.0,7.0,91,0.00,,---,0.00,0.00,VWS V14.01,2013-01-15 09:22:00,
2013-01-15 03:25:00,38.3,35.9,30.13,NNW,327,0.0,7.0,91,0.00,,---,0.00,0.00,VWS V14.01,2013-01-15 09:25:00,
2013-01-15 03:27:00,38.4,36.0,30.13,NNE,12,0.0,7.0,91,0.00,,---,0.00,0.00,VWS V14.01,2013-01-15 09:27:00,
2013-01-15 03:28:00,38.4,36.0,30.13,NNE,12,0.0,7.0,91,0.00,,---,0.00,0.00,VWS V14.01,2013-01-15 09:28:00,
2013-01-15 03:30:00,38.3,35.9,30.13,NNW,336,1.0,3.0,91,0.00,,---,0.00,0.00,VWS V14.01,2013-01-15 09:30:00,
2013-01-15 03:31:00,38.3,35.9,30.13,NW,326,0.0,3.0,91,0.00,,---,0.00,0.00,VWS V14.01,2013-01-15 09:31:00,
2013-01-15 03:34:00,38.3,35.9,30.13,North,9,0.0,3.0,91,0.00,,---,0.00,0.00,VWS V14.01,2013-01-15 09:34:00,
2013-01-15 03:36:00,38.3,35.9,30.13,NNE,16,0.0,4.0,91,0.00,,---,0.00,0.00,VWS V14.01,2013-01-15 09:36:00,
2013-01-15 03:37:00,38.3,35.9,30.13,NNE,16,2.0,4.0,91,0.00,,---,0.00,0.00,VWS V14.01,2013-01-15 09:37:00,
2013-01-15 03:39:00,38.3,35.9,30.13,NNE,19,0.0,4.0,91,0.00,,---,0.00,0.00,VWS V14.01,2013-01-15 09:39:00,
2013-01-15 03:41:00,38.3,35.9,30.13,NE,46,3.0,4.0,91,0.00,,---,0.00,0.00,VWS V14.01,2013-01-15 09:41:00,
2013-01-15 03:43:00,38.3,35.9,30.13,NNE,32,1.0,4.0,91,0.00,,---,0.00,0.00,VWS V14.01,2013-01-15 09:43:00,
2013-01-15 03:44:00,38.3,35.9,30.13,NNW,340,3.0,4.0,91,0.00,,---,0.00,0.00,VWS V14.01,2013-01-15 09:44:00,
2013-01-15 03:46:00,38.3,35.9,30.13,NE,55,2.0,4.0,91,0.00,,---,0.00,0.00,VWS V14.01,2013-01-15 09:46:00,
2013-01-15 03:47:00,38.3,35.9,30.12,NE,55,0.0,4.0,91,0.00,,---,0.00,0.00,VWS V14.01,2013-01-15 09:47:00,
2013-01-15 03:49:00,38.3,35.9,30.13,NNW,337,0.0,4.0,91,0.00,,---,0.00,0.00,VWS V14.01,2013-01-15 09:49:00,
2013-01-15 03:51:00,38.3,35.9,30.12,NNW,346,2.0,4.0,91,0.00,,---,0.00,0.00,VWS V14.01,2013-01-15 09:51:00,
2013-01-15 03:52:00,38.3,35.9,30.12,NNW,346,0.0,4.0,91,0.00,,---,0.00,0.00,VWS V14.01,2013-01-15 09:52:00,
2013-01-15 03:55:00,38.3,35.9,30.12,NE,55,0.0,4.0,91,0.00,,---,0.00,0.00,VWS V14.01,2013-01-15 09:55:00,
2013-01-15 03:56:00,38.3,35.9,30.13,North,355,2.0,4.0,91,0.00,,---,0.00,0.00,VWS V14.01,2013-01-15 09:56:00,
2013-01-15 03:57:00,38.3,35.9,30.13,North,355,2.0,4.0,91,0.00,,---,0.00,0.00,VWS V14.01,2013-01-15 09:57:00,
2013-01-15 04:00:00,38.3,35.9,30.13,NNE,22,1.0,2.0,91,0.00,,---,0.00,0.00,VWS V14.01,2013-01-15 10:00:00,
2013-01-15 04:01:00,38.3,35.9,30.13,NNE,22,0.0,2.0,91,0.00,,---,0.00,0.00,VWS V14.01,2013-01-15 10:01:00,
2013-01-15 04:03:00,38.3,35.9,30.13,NNE,22,0.0,2.0,91,0.00,,---,0.00,0.00,VWS V14.01,2013-01-15 10:03:00,
2013-01-15 04:05:00,38.3,35.9,30.13,NNE,22,0.0,2.0,91,0.00,,---,0.00,0.00,VWS V14.01,2013-01-15 10:05:00,
2013-01-15 04:06:00,38.3,35.9,30.13,NNE,22,0.0,2.0,91,0.00,,---,0.00,0.00,VWS V14.01,2013-01-15 10:06:00,
2013-01-15 04:09:00,38.4,36.0,30.12,North,355,2.0,3.0,91,0.00,,---,0.00,0.00,VWS V14.01,2013-01-15 10:09:00,
2013-01-15 04:10:00,38.4,36.0,30.12,NW,323,0.0,4.0,91,0.00,,---,0.00,0.00,VWS V14.01,2013-01-15 10:10:00,
2013-01-15 04:11:00,38.4,36.0,30.12,NW,323,0.0,4.0,91,0.00,,---,0.00,0.00,VWS V14.01,2013-01-15 10:11:00,
2013-01-15 04:16:00,38.4,36.0,30.12,NW,323,1.0,4.0,91,0.00,,---,0.00,0.00,VWS V14.01,2013-01-15 10:16:00,
2013-01-15 04:21:00,38.4,36.0,30.12,NNE,22,1.0,5.0,91,0.00,,---,0.00,0.00,VWS V14.01,2013-01-15 10:21:00,
2013-01-15 04:22:00,38.4,36.0,30.12,North,355,1.0,5.0,91,0.00,,---,0.00,0.00,VWS V14.01,2013-01-15 10:22:00,
2013-01-15 04:23:00,38.4,36.0,30.12,North,355,0.0,5.0,91,0.00,,---,0.00,0.00,VWS V14.01,2013-01-15 10:23:00,
2013-01-15 04:26:00,38.3,35.9,30.12,WNW,301,3.0,5.0,91,0.00,,---,0.00,0.00,VWS V14.01,2013-01-15 10:26:00,
2013-01-15 04:28:00,38.3,35.9,30.12,NNW,337,2.0,5.0,91,0.00,,---,0.00,0.00,VWS V14.01,2013-01-15 10:28:00,
2013-01-15 04:29:00,38.4,36.0,30.12,NNW,337,0.0,5.0,91,0.00,,---,0.00,0.00,VWS V14.01,2013-01-15 10:29:00,
2013-01-15 04:30:00,38.4,36.0,30.12,NNW,337,0.0,5.0,91,0.00,,---,0.00,0.00,VWS V14.01,2013-01-15 10:30:00,
2013-01-15 04:31:00,38.3,35.9,30.12,NNW,337,0.0,2.0,91,0.00,,---,0.00,0.00,VWS V14.01,2013-01-15 10:31:00,
2013-01-15 04:33:00,38.3,35.9,30.12,NW,315,0.0,3.0,91,0.00,,---,0.00,0.00,VWS V14.01,2013-01-15 10:33:00,
2013-01-15 04:34:00,38.3,35.9,30.12,NNE,17,0.0,3.0,91,0.00,,---,0.00,0.00,VWS V14.01,2013-01-15 10:34:00,
2013-01-15 04:36:00,38.3,35.9,30.12,NNW,327,0.0,3.0,91,0.00,,---,0.00,0.00,VWS V14.01,2013-01-15 10:36:00,
2013-01-15 04:39:00,38.3,35.9,30.12,SE,144,0.0,4.0,91,0.00,,---,0.00,0.00,VWS V14.01,2013-01-15 10:39:00,
2013-01-15 04:40:00,38.3,35.9,30.13,ENE,71,0.0,4.0,91,0.00,,---,0.00,0.00,VWS V14.01,2013-01-15 10:40:00,
2013-01-15 04:41:00,38.3,35.9,30.13,ENE,71,0.0,4.0,91,0.00,,---,0.00,0.00,VWS V14.01,2013-01-15 10:41:00,
2013-01-15 04:43:00,38.3,35.9,30.13,ENE,71,0.0,4.0,91,0.00,,---,0.00,0.00,VWS V14.01,2013-01-15 10:43:00,
2013-01-15 04:44:00,38.3,35.9,30.13,North,5,2.0,4.0,91,0.00,,---,0.00,0.00,VWS V14.01,2013-01-15 10:44:00,
2013-01-15 04:47:00,38.2,35.8,30.13,NNE,29,2.0,5.0,91,0.00,,---,0.00,0.00,VWS V14.01,2013-01-15 10:47:00,
2013-01-15 04:48:00,38.3,35.9,30.13,NNW,340,2.0,5.0,91,0.00,,---,0.00,0.00,VWS V14.01,2013-01-15 10:48:00,
2013-01-15 04:50:00,38.2,35.8,30.13,NNW,342,1.0,5.0,91,0.00,,---,0.00,0.00,VWS V14.01,2013-01-15 10:50:00,
2013-01-15 04:53:00,38.2,35.8,30.13,NE,42,0.0,5.0,91,0.00,,---,0.00,0.00,VWS V14.01,2013-01-15 10:53:00,
2013-01-15 04:54:00,38.2,35.8,30.13,NE,42,1.0,5.0,91,0.00,,---,0.00,0.00,VWS V14.01,2013-01-15 10:54:00,
2013-01-15 04:55:00,38.2,35.8,30.14,NNW,327,2.0,5.0,91,0.00,,---,0.00,0.00,VWS V14.01,2013-01-15 10:55:00,
2013-01-15 04:57:00,38.2,35.8,30.13,NNW,336,2.0,5.0,91,0.00,,---,0.00,0.00,VWS V14.01,2013-01-15 10:57:00,
2013-01-15 04:59:00,38.2,35.8,30.13,West,279,3.0,5.0,91,0.00,,---,0.00,0.00,VWS V14.01,2013-01-15 10:59:00,
2013-01-15 05:00:00,38.2,35.8,30.13,WNW,292,2.0,5.0,91,0.00,,---,0.00,0.00,VWS V14.01,2013-01-15 11:00:00,
2013-01-15 05:01:00,38.1,35.7,30.12,North,355,2.0,3.0,91,0.00,,---,0.00,0.00,VWS V14.01,2013-01-15 11:01:00,
2013-01-15 05:02:00,38.1,35.7,30.12,North,360,2.0,4.0,91,0.00,,---,0.00,0.00,VWS V14.01,2013-01-15 11:02:00,
2013-01-15 05:05:00,38.1,35.7,30.11,NW,318,0.0,4.0,91,0.00,,---,0.00,0.00,VWS V14.01,2013-01-15 11:05:00,
2013-01-15 05:08:00,38.1,35.7,30.11,ENE,62,2.0,5.0,91,0.00,,---,0.00,0.00,VWS V14.01,2013-01-15 11:08:00,
2013-01-15 05:10:00,38.0,35.6,30.11,NNE,13,3.0,9.0,91,0.00,,---,0.00,0.00,VWS V14.01,2013-01-15 11:10:00,
2013-01-15 05:14:00,38.0,35.6,30.11,NNW,346,1.0,9.0,91,0.00,,---,0.00,0.00,VWS V14.01,2013-01-15 11:14:00,
2013-01-15 05:16:00,38.0,35.6,30.11,North,355,2.0,9.0,91,0.00,,---,0.00,0.00,VWS V14.01,2013-01-15 11:16:00,
2013-01-15 05:17:00,38.0,35.6,30.11,NE,35,1.0,9.0,91,0.00,,---,0.00,0.00,VWS V14.01,2013-01-15 11:17:00,
2013-01-15 05:19:00,37.9,35.5,30.11,NNE,14,1.0,9.0,91,0.01,,---,0.01,0.00,VWS V14.01,2013-01-15 11:19:00,
2013-01-15 05:23:00,37.9,35.5,30.11,North,355,5.0,9.0,91,0.01,,---,0.01,0.00,VWS V14.01,2013-01-15 11:23:00,
2013-01-15 05:24:00,37.8,35.4,30.11,NNE,22,0.0,9.0,91,0.01,,---,0.01,0.00,VWS V14.01,2013-01-15 11:24:00,
2013-01-15 05:25:00,37.8,35.4,30.11,NNE,22,0.0,9.0,91,0.01,,---,0.01,0.00,VWS V14.01,2013-01-15 11:25:00,
2013-01-15 05:26:00,37.8,35.4,30.11,NNE,22,0.0,9.0,91,0.01,,---,0.01,0.00,VWS V14.01,2013-01-15 11:26:00,
2013-01-15 05:30:00,37.7,35.3,30.12,North,9,0.0,2.0,91,0.01,,---,0.01,0.00,VWS V14.01,2013-01-15 11:30:00,
2013-01-15 05:31:00,37.7,35.3,30.12,North,9,0.0,3.0,91,0.01,,---,0.01,0.00,VWS V14.01,2013-01-15 11:31:00,
2013-01-15 05:35:00,37.7,35.6,30.12,North,9,0.0,3.0,92,0.01,,---,0.01,0.00,VWS V14.01,2013-01-15 11:35:00,
2013-01-15 05:36:00,37.7,35.6,30.12,North,9,1.0,3.0,92,0.01,,---,0.01,0.00,VWS V14.01,2013-01-15 11:36:00,
2013-01-15 05:37:00,37.6,35.5,30.12,NW,313,1.0,3.0,92,0.01,,---,0.01,0.00,VWS V14.01,2013-01-15 11:37:00,
2013-01-15 05:40:00,37.6,35.5,30.12,North,355,1.0,3.0,92,0.01,,---,0.01,0.00,VWS V14.01,2013-01-15 11:40:00,
2013-01-15 05:41:00,37.6,35.5,30.12,NNW,336,0.0,3.0,92,0.01,,---,0.01,0.00,VWS V14.01,2013-01-15 11:41:00,
2013-01-15 05:42:00,37.5,35.4,30.12,NNW,336,0.0,3.0,92,0.01,,---,0.01,0.00,VWS V14.01,2013-01-15 11:42:00,
2013-01-15 05:46:00,37.5,35.4,30.12,NNE,25,1.0,3.0,92,0.01,,---,0.01,0.00,VWS V14.01,2013-01-15 11:46:00,
2013-01-15 05:47:00,37.5,35.4,30.12,NW,310,0.0,3.0,92,0.01,,---,0.01,0.00,VWS V14.01,2013-01-15 11:47:00,
2013-01-15 05:48:00,37.5,35.4,30.12,NNW,333,1.0,3.0,92,0.01,,---,0.01,0.00,VWS V14.01,2013-01-15 11:48:00,
2013-01-15 05:51:00,37.4,35.3,30.12,WNW,303,0.0,3.0,92,0.01,,---,0.01,0.00,VWS V14.01,2013-01-15 11:51:00,
2013-01-15 05:52:00,37.4,35.3,30.12,WNW,303,0.0,3.0,92,0.01,,---,0.01,0.00,VWS V14.01,2013-01-15 11:52:00,
2013-01-15 05:54:00,37.4,35.3,30.13,WNW,303,0.0,3.0,92,0.01,,---,0.01,0.00,VWS V14.01,2013-01-15 11:54:00,
2013-01-15 05:55:00,37.4,35.3,30.13,WNW,303,0.0,3.0,92,0.01,,---,0.01,0.00,VWS V14.01,2013-01-15 11:55:00,
2013-01-15 05:56:00,37.4,35.3,30.13,North,355,0.0,3.0,92,0.02,,---,0.02,0.00,VWS V14.01,2013-01-15 11:56:00,
2013-01-15 05:58:00,37.4,35.3,30.13,North,355,0.0,3.0,92,0.02,,---,0.02,0.00,VWS V14.01,2013-01-15 11:58:00,
2013-01-15 05:59:00,37.3,35.2,30.13,North,355,1.0,3.0,92,0.02,,---,0.02,0.00,VWS V14.01,2013-01-15 11:59:00,
2013-01-15 06:00:00,37.3,35.2,30.13,North,355,1.0,3.0,92,0.02,,---,0.02,0.00,VWS V14.01,2013-01-15 12:00:00,
2013-01-15 06:02:00,37.3,35.2,30.12,NNW,331,1.0,3.0,92,0.02,,---,0.02,0.00,VWS V14.01,2013-01-15 12:02:00,
2013-01-15 06:04:00,37.3,35.2,30.12,NW,319,0.0,5.0,92,0.02,,---,0.02,0.00,VWS V14.01,2013-01-15 12:04:00,
2013-01-15 06:07:00,37.2,35.1,30.12,NW,307,0.0,5.0,92,0.02,,---,0.02,0.00,VWS V14.01,2013-01-15 12:07:00,
2013-01-15 06:09:00,37.1,35.0,30.12,NW,307,0.0,5.0,92,0.02,,---,0.02,0.00,VWS V14.01,2013-01-15 12:09:00,
2013-01-15 06:10:00,37.1,35.0,30.12,NW,307,0.0,5.0,92,0.02,,---,0.02,0.00,VWS V14.01,2013-01-15 12:10:00,
2013-01-15 06:13:00,37.1,35.3,30.12,NW,307,2.0,5.0,93,0.03,,---,0.03,0.00,VWS V14.01,2013-01-15 12:13:00,
2013-01-15 06:15:00,37.0,35.2,30.12,NNW,327,1.0,5.0,93,0.03,,---,0.03,0.00,VWS V14.01,2013-01-15 12:15:00,
2013-01-15 06:19:00,37.0,35.2,30.13,NW,321,0.0,5.0,93,0.03,,---,0.03,0.00,VWS V14.01,2013-01-15 12:19:00,
2013-01-15 06:20:00,37.0,35.2,30.13,NW,321,1.0,5.0,93,0.03,,---,0.03,0.00,VWS V14.01,2013-01-15 12:20:00,
2013-01-15 06:24:00,36.9,35.1,30.13,NW,315,1.0,5.0,93,0.03,,---,0.03,0.00,VWS V14.01,2013-01-15 12:24:00,
2013-01-15 06:25:00,36.9,35.1,30.13,NW,315,0.0,5.0,93,0.03,,---,0.03,0.00,VWS V14.01,2013-01-15 12:25:00,
2013-01-15 06:29:00,36.8,35.0,30.13,NW,315,3.0,7.0,93,0.03,,---,0.03,0.00,VWS V14.01,2013-01-15 12:29:00,
2013-01-15 06:30:00,36.8,35.0,30.13,NW,315,0.0,1.0,93,0.02,,---,0.03,0.00,VWS V14.01,2013-01-15 12:30:00,
2013-01-15 06:31:00,36.8,35.0,30.13,NW,315,0.0,1.0,93,0.02,,---,0.03,0.00,VWS V14.01,2013-01-15 12:31:00,
2013-01-15 06:32:00,36.8,35.0,30.13,NW,315,0.0,2.0,93,0.02,,---,0.03,0.00,VWS V14.01,2013-01-15 12:32:00,
2013-01-15 06:35:00,36.8,35.0,30.13,NW,315,0.0,2.0,93,0.02,,---,0.03,0.00,VWS V14.01,2013-01-15 12:35:00,
2013-01-15 06:36:00,36.8,35.0,30.13,NW,315,0.0,2.0,93,0.02,,---,0.03,0.00,VWS V14.01,2013-01-15 12:36:00,
2013-01-15 06:37:00,36.7,34.9,30.13,NW,315,0.0,2.0,93,0.02,,---,0.03,0.00,VWS V14.01,2013-01-15 12:37:00,
2013-01-15 06:40:00,36.7,34.9,30.13,WNW,292,3.0,4.0,93,0.02,,---,0.03,0.00,VWS V14.01,2013-01-15 12:40:00,
2013-01-15 06:42:00,36.7,34.9,30.13,NNW,327,2.0,4.0,93,0.02,,---,0.03,0.00,VWS V14.01,2013-01-15 12:42:00,
2013-01-15 06:43:00,36.7,34.9,30.13,NNW,327,1.0,4.0,93,0.02,,---,0.03,0.00,VWS V14.01,2013-01-15 12:43:00,
2013-01-15 06:44:00,36.7,34.9,30.13,North,355,1.0,9.0,93,0.02,,---,0.03,0.00,VWS V14.01,2013-01-15 12:44:00,
2013-01-15 06:46:00,36.6,34.8,30.13,NNW,333,2.0,9.0,93,0.02,,---,0.03,0.00,VWS V14.01,2013-01-15 12:46:00,
2013-01-15 06:49:00,36.6,35.0,30.13,NNW,333,0.0,9.0,94,0.02,,---,0.03,0.00,VWS V14.01,2013-01-15 12:49:00,
2013-01-15 06:51:00,36.6,35.0,30.13,NNW,340,0.0,9.0,94,0.02,,---,0.03,0.00,VWS V14.01,2013-01-15 12:51:00,
2013-01-15 06:52:00,36.6,34.8,30.13,NW,317,1.0,9.0,93,0.02,,---,0.03,0.00,VWS V14.01,2013-01-15 12:52:00,
2013-01-15 06:55:00,36.6,35.0,30.14,NW,319,3.0,9.0,94,0.02,,---,0.03,0.00,VWS V14.01,2013-01-15 12:55:00,
2013-01-15 06:56:00,36.5,34.9,30.14,NW,326,0.0,9.0,94,0.03,,---,0.04,0.00,VWS V14.01,2013-01-15 12:56:00,
2013-01-15 06:57:00,36.5,34.9,30.14,North,355,3.0,9.0,94,0.03,,---,0.04,0.00,VWS V14.01,2013-01-15 12:57:00,
2013-01-15 07:00:00,36.5,34.9,30.14,North,355,0.0,9.0,94,0.03,,---,0.04,0.00,VWS V14.01,2013-01-15 13:00:00,
2013-01-15 07:02:00,36.5,34.9,30.14,NNW,327,2.0,4.0,94,0.02,,---,0.04,0.00,VWS V14.01,2013-01-15 13:02:00,
2013-01-15 07:03:00,36.5,34.9,30.14,NNW,327,1.0,4.0,94,0.02,,---,0.04,0.00,VWS V14.01,2013-01-15 13:03:00,
2013-01-15 07:05:00,36.5,34.9,30.14,NNW,327,0.0,4.0,94,0.02,,---,0.04,0.00,VWS V14.01,2013-01-15 13:05:00,
2013-01-15 07:08:00,36.4,34.8,30.14,North,360,3.0,4.0,94,0.02,,---,0.04,0.00,VWS V14.01,2013-01-15 13:08:00,
2013-01-15 07:09:00,36.4,34.8,30.15,North,360,0.0,4.0,94,0.02,,---,0.04,0.00,VWS V14.01,2013-01-15 13:09:00,
2013-01-15 07:10:00,36.4,34.8,30.15,NW,307,3.0,4.0,94,0.02,,---,0.04,0.00,VWS V14.01,2013-01-15 13:10:00,
2013-01-15 07:12:00,36.4,34.8,30.15,NW,322,1.0,4.0,94,0.02,,---,0.04,0.00,VWS V14.01,2013-01-15 13:12:00,
2013-01-15 07:13:00,36.4,34.8,30.15,NW,322,0.0,4.0,94,0.02,,---,0.04,0.00,VWS V14.01,2013-01-15 13:13:00,
2013-01-15 07:16:00,36.4,34.8,30.15,NW,322,1.0,4.0,94,0.02,,---,0.04,0.00,VWS V14.01,2013-01-15 13:16:00,
2013-01-15 07:17:00,36.4,34.8,30.15,NW,322,1.0,4.0,94,0.02,,---,0.04,0.00,VWS V14.01,2013-01-15 13:17:00,
2013-01-15 07:19:00,36.4,34.8,30.15,WNW,297,0.0,4.0,94,0.02,,---,0.04,0.00,VWS V14.01,2013-01-15 13:19:00,
2013-01-15 07:23:00,36.4,34.8,30.15,NW,305,0.0,4.0,94,0.02,,---,0.04,0.00,VWS V14.01,2013-01-15 13:23:00,
2013-01-15 07:24:00,36.4,34.8,30.15,NW,305,0.0,4.0,94,0.02,,---,0.04,0.00,VWS V14.01,2013-01-15 13:24:00,
2013-01-15 07:29:00,36.4,34.8,30.15,North,5,0.0,4.0,94,0.02,,---,0.04,0.00,VWS V14.01,2013-01-15 13:29:00,
2013-01-15 07:30:00,36.3,34.7,30.15,North,5,0.0,1.0,94,0.01,,---,0.04,0.00,VWS V14.01,2013-01-15 13:30:00,
2013-01-15 07:34:00,36.4,34.8,30.15,North,355,2.0,4.0,94,0.02,,---,0.05,0.00,VWS V14.01,2013-01-15 13:34:00,
2013-01-15 07:35:00,36.4,34.8,30.16,North,355,1.0,4.0,94,0.02,,---,0.05,0.00,VWS V14.01,2013-01-15 13:35:00,
2013-01-15 07:36:00,36.4,34.8,30.15,NW,324,1.0,4.0,94,0.02,,---,0.05,0.00,VWS V14.01,2013-01-15 13:36:00,
2013-01-15 07:40:00,36.3,34.7,30.15,NW,318,1.0,4.0,94,0.02,,---,0.05,5.00,VWS V14.01,2013-01-15 13:40:00,
2013-01-15 07:41:00,36.3,34.7,30.15,North,360,3.0,4.0,94,0.02,,---,0.05,5.00,VWS V14.01,2013-01-15 13:41:00,
2013-01-15 07:42:00,36.3,34.7,30.15,NNW,336,2.0,4.0,94,0.02,,---,0.05,5.00,VWS V14.01,2013-01-15 13:42:00,
2013-01-15 07:45:00,36.3,34.7,30.15,NNW,331,3.0,4.0,94,0.02,,---,0.05,0.00,VWS V14.01,2013-01-15 13:45:00,
2013-01-15 07:46:00,36.3,34.7,30.15,NNW,331,0.0,4.0,94,0.02,,---,0.05,0.00,VWS V14.01,2013-01-15 13:46:00,
2013-01-15 07:47:00,36.3,34.7,30.16,NW,306,3.0,5.0,94,0.02,,---,0.05,0.00,VWS V14.01,2013-01-15 13:47:00,
2013-01-15 07:51:00,36.3,34.7,30.16,NNW,340,0.0,5.0,94,0.02,,---,0.05,5.00,VWS V14.01,2013-01-15 13:51:00,
2013-01-15 07:52:00,36.2,34.6,30.16,NNW,340,1.0,5.0,94,0.02,,---,0.05,7.00,VWS V14.01,2013-01-15 13:52:00,
2013-01-15 07:53:00,36.2,34.6,30.16,NW,325,3.0,5.0,94,0.02,,---,0.05,7.00,VWS V14.01,2013-01-15 13:53:00,
2013-01-15 07:57:00,36.2,34.6,30.16,NW,326,1.0,5.0,94,0.02,,---,0.05,5.00,VWS V14.01,2013-01-15 13:57:00,
2013-01-15 07:58:00,36.2,34.6,30.16,NW,326,0.0,5.0,94,0.02,,---,0.05,5.00,VWS V14.01,2013-01-15 13:58:00,
2013-01-15 07:59:00,36.2,34.6,30.17,NNW,340,0.0,5.0,94,0.02,,---,0.05,5.00,VWS V14.01,2013-01-15 13:59:00,
2013-01-15 08:00:00,36.2,34.6,30.17,NNW,340,0.0,5.0,94,0.02,,---,0.05,5.00,VWS V14.01,2013-01-15 14:00:00,
2013-01-15 08:02:00,36.2,34.6,30.17,North,355,0.0,2.0,94,0.01,,---,0.05,5.00,VWS V14.01,2013-01-15 14:02:00,
2013-01-15 08:05:00,36.2,34.6,30.18,NNW,327,3.0,3.0,94,0.01,,---,0.05,5.00,VWS V14.01,2013-01-15 14:05:00,
2013-01-15 08:07:00,36.3,34.7,30.18,West,275,3.0,3.0,94,0.02,,---,0.06,7.00,VWS V14.01,2013-01-15 14:07:00,
2013-01-15 08:08:00,36.3,34.7,30.18,North,10,1.0,3.0,94,0.02,,---,0.06,9.00,VWS V14.01,2013-01-15 14:08:00,
2013-01-15 08:12:00,36.3,34.7,30.18,WNW,302,2.0,4.0,94,0.02,,---,0.06,9.00,VWS V14.01,2013-01-15 14:12:00,
2013-01-15 08:13:00,36.3,34.7,30.18,WNW,303,2.0,4.0,94,0.02,,---,0.06,9.00,VWS V14.01,2013-01-15 14:13:00,
2013-01-15 08:17:00,36.3,34.7,30.18,WNW,291,1.0,4.0,94,0.02,,---,0.06,9.00,VWS V14.01,2013-01-15 14:17:00,
2013-01-15 08:19:00,36.2,34.6,30.18,NW,323,2.0,4.0,94,0.02,,---,0.06,9.00,VWS V14.01,2013-01-15 14:19:00,
2013-01-15 08:23:00,36.2,34.9,30.18,WNW,302,2.0,5.0,95,0.02,,---,0.06,12.00,VWS V14.01,2013-01-15 14:23:00,
2013-01-15 08:24:00,36.2,34.9,30.18,NW,321,4.0,5.0,95,0.02,,---,0.06,12.00,VWS V14.01,2013-01-15 14:24:00,
2013-01-15 08:25:00,36.2,34.9,30.18,WNW,298,2.0,5.0,95,0.02,,---,0.06,14.00,VWS V14.01,2013-01-15 14:25:00,
2013-01-15 08:28:00,36.2,34.9,30.18,WNW,293,0.0,5.0,95,0.02,,---,0.06,14.00,VWS V14.01,2013-01-15 14:28:00,
2013-01-15 08:29:00,36.2,34.9,30.18,WNW,295,2.0,5.0,95,0.02,,---,0.06,16.00,VWS V14.01,2013-01-15 14:29:00,
2013-01-15 08:30:00,36.1,34.8,30.18,NNW,344,2.0,3.0,95,0.02,,---,0.06,16.00,VWS V14.01,2013-01-15 14:30:00,
2013-01-15 08:33:00,36.1,34.8,30.18,North,355,0.0,5.0,95,0.02,,---,0.06,18.00,VWS V14.01,2013-01-15 14:33:00,
2013-01-15 08:34:00,36.1,34.8,30.18,NW,321,1.0,5.0,95,0.02,,---,0.06,18.00,VWS V14.01,2013-01-15 14:34:00,
2013-01-15 08:35:00,36.1,34.8,30.18,North,360,0.0,5.0,95,0.02,,---,0.06,18.00,VWS V14.01,2013-01-15 14:35:00,
2013-01-15 08:38:00,36.1,34.8,30.18,NNW,336,2.0,5.0,95,0.02,,---,0.06,19.00,VWS V14.01,2013-01-15 14:38:00,
2013-01-15 08:39:00,36.1,34.8,30.18,NNW,346,2.0,5.0,95,0.02,,---,0.06,18.00,VWS V14.01,2013-01-15 14:39:00,
2013-01-15 08:40:00,36.0,34.7,30.19,NW,304,3.0,5.0,95,0.02,,---,0.06,14.00,VWS V14.01,2013-01-15 14:40:00,
2013-01-15 08:41:00,36.0,34.7,30.19,WNW,298,1.0,5.0,95,0.02,,---,0.06,16.00,VWS V14.01,2013-01-15 14:41:00,
2013-01-15 08:45:00,36.0,34.7,30.19,North,355,3.0,5.0,95,0.02,,---,0.06,21.00,VWS V14.01,2013-01-15 14:45:00,
2013-01-15 08:46:00,36.0,34.7,30.18,NNW,327,9.0,9.0,95,0.02,,---,0.06,26.00,VWS V14.01,2013-01-15 14:46:00,
2013-01-15 08:47:00,36.0,34.7,30.18,NNW,342,0.0,9.0,95,0.02,,---,0.06,30.00,VWS V14.01,2013-01-15 14:47:00,
2013-01-15 08:50:00,35.9,34.6,30.18,NW,307,1.0,9.0,95,0.02,,---,0.06,30.00,VWS V14.01,2013-01-15 14:50:00,
2013-01-15 08:51:00,35.9,34.6,30.18,NW,319,2.0,9.0,95,0.02,,---,0.06,30.00,VWS V14.01,2013-01-15 14:51:00,
2013-01-15 08:53:00,35.9,34.6,30.18,WNW,300,0.0,9.0,95,0.02,,---,0.06,32.00,VWS V14.01,2013-01-15 14:53:00,
2013-01-15 08:55:00,35.9,34.6,30.19,West,274,0.0,9.0,95,0.02,,---,0.06,28.00,VWS V14.01,2013-01-15 14:55:00,
2013-01-15 08:56:00,35.9,34.6,30.19,NW,315,3.0,9.0,95,0.02,,---,0.06,28.00,VWS V14.01,2013-01-15 14:56:00,
2013-01-15 08:59:00,35.8,34.5,30.19,WNW,302,0.0,9.0,95,0.02,,---,0.06,26.00,VWS V14.01,2013-01-15 14:59:00,
2013-01-15 09:00:00,35.8,34.5,30.19,WNW,302,0.0,9.0,95,0.02,,---,0.06,23.00,VWS V14.01,2013-01-15 15:00:00,
2013-01-15 09:01:00,35.8,34.5,30.19,NNW,341,3.0,3.0,95,0.01,,---,0.06,21.00,VWS V14.01,2013-01-15 15:01:00,
2013-01-15 09:03:00,35.8,34.5,30.19,NNW,333,1.0,3.0,95,0.01,,---,0.06,18.00,VWS V14.01,2013-01-15 15:03:00,
2013-01-15 09:06:00,35.8,34.5,30.20,NW,321,0.0,3.0,95,0.01,,---,0.06,14.00,VWS V14.01,2013-01-15 15:06:00,
2013-01-15 09:07:00,35.9,34.6,30.20,NW,321,0.0,3.0,95,0.01,,---,0.06,14.00,VWS V14.01,2013-01-15 15:07:00,
2013-01-15 09:08:00,35.9,34.6,30.20,NW,321,0.0,3.0,95,0.01,,---,0.06,16.00,VWS V14.01,2013-01-15 15:08:00,
2013-01-15 09:11:00,35.9,34.6,30.20,North,360,0.0,5.0,95,0.01,,---,0.06,25.00,VWS V14.01,2013-01-15 15:11:00,
2013-01-15 09:12:00,35.9,34.6,30.20,NNW,343,0.0,5.0,95,0.02,,---,0.07,33.00,VWS V14.01,2013-01-15 15:12:00,
2013-01-15 09:14:00,35.9,34.6,30.20,WNW,284,2.0,6.0,95,0.02,,---,0.07,42.00,VWS V14.01,2013-01-15 15:14:00,
2013-01-15 09:17:00,35.7,34.4,30.20,WNW,291,2.0,7.0,95,0.02,,---,0.07,46.00,VWS V14.01,2013-01-15 15:17:00,
2013-01-15 09:18:00,35.7,34.4,30.20,WNW,291,0.0,7.0,95,0.02,,---,0.07,46.00,VWS V14.01,2013-01-15 15:18:00,
2013-01-15 09:19:00,35.7,34.4,30.20,NNE,14,1.0,7.0,95,0.02,,---,0.07,46.00,VWS V14.01,2013-01-15 15:19:00,
2013-01-15 09:20:00,35.6,34.3,30.20,NNE,14,0.0,7.0,95,0.02,,---,0.07,39.00,VWS V14.01,2013-01-15 15:20:00,
2013-01-15 09:23:00,35.6,34.3,30.21,North,350,4.0,7.0,95,0.02,,---,0.07,33.00,VWS V14.01,2013-01-15 15:23:00,
2013-01-15 09:24:00,35.6,34.3,30.21,NW,309,1.0,7.0,95,0.02,,---,0.07,32.00,VWS V14.01,2013-01-15 15:24:00,
2013-01-15 09:28:00,35.5,34.2,30.20,North,355,5.0,7.0,95,0.02,,---,0.07,33.00,VWS V14.01,2013-01-15 15:28:00,
2013-01-15 09:29:00,35.3,34.0,30.20,West,281,4.0,8.0,95,0.02,,---,0.07,35.00,VWS V14.01,2013-01-15 15:29:00,
2013-01-15 09:30:00,35.3,34.0,30.20,NW,311,6.0,7.0,95,0.01,,---,0.07,39.00,VWS V14.01,2013-01-15 15:30:00,
2013-01-15 09:34:00,35.1,33.8,30.19,WNW,294,2.0,7.0,95,0.01,,---,0.07,47.00,VWS V14.01,2013-01-15 15:34:00,
2013-01-15 09:35:00,35.1,33.8,30.20,NNE,27,1.0,7.0,95,0.01,,---,0.07,47.00,VWS V14.01,2013-01-15 15:35:00,
2013-01-15 09:36:00,35.1,33.8,30.20,WNW,295,3.0,7.0,95,0.01,,---,0.07,39.00,VWS V14.01,2013-01-15 15:36:00,
2013-01-15 09:39:00,34.9,33.6,30.20,NW,314,3.0,7.0,95,0.01,,---,0.07,30.00,VWS V14.01,2013-01-15 15:39:00,
2013-01-15 09:40:00,34.8,33.5,30.20,WNW,296,5.0,7.0,95,0.01,,---,0.07,30.00,VWS V14.01,2013-01-15 15:40:00,
2013-01-15 09:41:00,34.7,33.4,30.20,North,360,2.0,7.0,95,0.01,,---,0.07,35.00,VWS V14.01,2013-01-15 15:41:00,
2013-01-15 09:44:00,34.7,33.4,30.20,WNW,300,4.0,7.0,95,0.01,,---,0.07,40.00,VWS V14.01,2013-01-15 15:44:00,
2013-01-15 09:45:00,34.7,33.4,30.20,NNW,329,6.0,7.0,95,0.01,,---,0.07,30.00,VWS V14.01,2013-01-15 15:45:00,
2013-01-15 09:46:00,34.7,33.4,30.20,NW,304,8.0,8.0,95,0.01,,---,0.07,30.00,VWS V14.01,2013-01-15 15:46:00,
2013-01-15 09:47:00,34.6,33.3,30.20,NW,326,2.0,8.0,95,0.01,,---,0.07,23.00,VWS V14.01,2013-01-15 15:47:00,
2013-01-15 09:49:00,34.6,33.3,30.21,West,265,5.0,8.0,95,0.01,,---,0.07,21.00,VWS V14.01,2013-01-15 15:49:00,
2013-01-15 09:51:00,34.5,33.2,30.21,North,355,2.0,8.0,95,0.02,,---,0.08,25.00,VWS V14.01,2013-01-15 15:51:00,
2013-01-15 09:53:00,34.5,33.2,30.20,NNW,338,2.0,8.0,95,0.02,,---,0.08,25.00,VWS V14.01,2013-01-15 15:53:00,
2013-01-15 09:55:00,34.5,33.2,30.20,NNW,342,4.0,8.0,95,0.02,,---,0.08,21.00,VWS V14.01,2013-01-15 15:55:00,
2013-01-15 09:56:00,34.5,33.2,30.20,NNE,28,2.0,8.0,95,0.02,,---,0.08,26.00,VWS V14.01,2013-01-15 15:56:00,
2013-01-15 09:58:00,34.5,33.2,30.20,NNW,331,2.0,8.0,95,0.02,,---,0.08,18.00,VWS V14.01,2013-01-15 15:58:00,
2013-01-15 10:00:00,34.5,33.2,30.20,NW,324,0.0,8.0,95,0.02,,---,0.08,19.00,VWS V14.01,2013-01-15 16:00:00,
2013-01-15 10:01:00,34.5,33.2,30.19,NE,42,0.0,3.0,95,0.02,,---,0.08,25.00,VWS V14.01,2013-01-15 16:01:00,
2013-01-15 10:02:00,34.5,33.2,30.18,NE,42,0.0,3.0,95,0.02,,---,0.08,30.00,VWS V14.01,2013-01-15 16:02:00,
2013-01-15 10:04:00,34.6,33.3,30.18,NW,311,0.0,3.0,95,0.02,,---,0.08,35.00,VWS V14.01,2013-01-15 16:04:00,
2013-01-15 10:07:00,34.6,33.3,30.19,NW,326,2.0,3.0,95,0.02,,---,0.08,37.00,VWS V14.01,2013-01-15 16:07:00,
2013-01-15 10:08:00,34.6,33.3,30.19,NW,308,3.0,3.0,95,0.02,,---,0.08,37.00,VWS V14.01,2013-01-15 16:08:00,
2013-01-15 10:10:00,34.7,33.4,30.19,NNW,330,1.0,5.0,95,0.02,,---,0.08,46.00,VWS V14.01,2013-01-15 16:10:00,
2013-01-15 10:12:00,34.7,33.4,30.19,NW,321,2.0,5.0,95,0.02,,---,0.08,33.00,VWS V14.01,2013-01-15 16:12:00,
2013-01-15 10:14:00,34.7,33.4,30.19,NW,325,2.0,5.0,95,0.02,,---,0.08,26.00,VWS V14.01,2013-01-15 16:14:00,
2013-01-15 10:15:00,34.7,33.4,30.19,NW,315,3.0,5.0,95,0.02,,---,0.08,26.00,VWS V14.01,2013-01-15 16:15:00,
2013-01-15 10:18:00,34.6,33.3,30.19,NNW,333,4.0,5.0,95,0.02,,---,0.08,40.00,VWS V14.01,2013-01-15 16:18:00,
2013-01-15 10:20:00,34.6,33.3,30.19,NW,313,4.0,5.0,95,0.02,,---,0.08,46.00,VWS V14.01,2013-01-15 16:20:00,
2013-01-15 10:21:00,34.6,33.3,30.19,WNW,302,2.0,5.0,95,0.02,,---,0.08,40.00,VWS V14.01,2013-01-15 16:21:00,
2013-01-15 10:23:00,34.6,33.3,30.19,North,349,2.0,6.0,95,0.02,,---,0.08,23.00,VWS V14.01,2013-01-15 16:23:00,
2013-01-15 10:25:00,34.6,33.3,30.19,North,360,0.0,6.0,95,0.02,,---,0.08,23.00,VWS V14.01,2013-01-15 16:25:00,
2013-01-15 10:26:00,34.7,33.4,30.19,West,273,3.0,6.0,95,0.02,,---,0.08,25.00,VWS V14.01,2013-01-15 16:26:00,
2013-01-15 10:28:00,34.6,33.3,30.19,NNE,12,2.0,6.0,95,0.02,,---,0.08,25.00,VWS V14.01,2013-01-15 16:28:00,
2013-01-15 10:30:00,34.6,33.3,30.19,NW,310,0.0,6.0,95,0.02,,---,0.08,25.00,VWS V14.01,2013-01-15 16:30:00,
2013-01-15 10:31:00,34.6,33.3,30.19,NW,309,1.0,3.0,95,0.01,,---,0.08,25.00,VWS V14.01,2013-01-15 16:31:00,
2013-01-15 10:32:00,34.6,33.3,30.19,NW,313,4.0,4.0,95,0.01,,---,0.08,23.00,VWS V14.01,2013-01-15 16:32:00,
2013-01-15 10:35:00,34.6,33.3,30.19,WNW,293,5.0,7.0,95,0.01,,---,0.08,23.00,VWS V14.01,2013-01-15 16:35:00,
2013-01-15 10:36:00,34.5,33.2,30.19,NNW,339,2.0,7.0,95,0.01,,---,0.08,28.00,VWS V14.01,2013-01-15 16:36:00,
2013-01-15 10:37:00,34.4,33.1,30.18,WNW,286,2.0,7.0,95,0.01,,---,0.08,30.00,VWS V14.01,2013-01-15 16:37:00,
2013-01-15 10:39:00,34.4,33.1,30.18,NNW,337,3.0,7.0,95,0.01,,---,0.08,39.00,VWS V14.01,2013-01-15 16:39:00,
2013-01-15 10:41:00,34.3,33.0,30.18,WNW,296,4.0,7.0,95,0.01,,---,0.08,37.00,VWS V14.01,2013-01-15 16:41:00,
2013-01-15 10:43:00,34.3,33.0,30.18,NW,317,4.0,7.0,95,0.01,,---,0.08,40.00,VWS V14.01,2013-01-15 16:43:00,
2013-01-15 10:45:00,34.3,33.0,30.18,NNE,21,2.0,7.0,95,0.01,,---,0.08,33.00,VWS V14.01,2013-01-15 16:45:00,
2013-01-15 10:47:00,34.3,33.0,30.18,NNW,346,3.0,7.0,95,0.01,,---,0.08,28.00,VWS V14.01,2013-01-15 16:47:00,
2013-01-15 10:49:00,34.2,32.9,30.18,NW,309,3.0,7.0,95,0.01,,---,0.08,35.00,VWS V14.01,2013-01-15 16:49:00,
2013-01-15 10:52:00,34.3,33.0,30.18,NNW,342,0.0,7.0,95,0.01,,---,0.08,28.00,VWS V14.01,2013-01-15 16:52:00,
2013-01-15 10:55:00,34.3,33.0,30.17,NW,308,0.0,7.0,95,0.01,,---,0.08,40.00,VWS V14.01,2013-01-15 16:55:00,
2013-01-15 10:57:00,34.4,33.1,30.17,NNW,337,1.0,7.0,95,0.01,,---,0.08,44.00,VWS V14.01,2013-01-15 16:57:00,
2013-01-15 10:58:00,34.3,33.0,30.17,NW,314,5.0,7.0,95,0.01,,---,0.08,44.00,VWS V14.01,2013-01-15 16:58:00,
2013-01-15 11:00:00,34.4,33.1,30.17,NNW,336,3.0,7.0,95,0.01,,---,0.08,33.00,VWS V14.01,2013-01-15 17:00:00,
2013-01-15 11:01:00,34.3,33.0,30.17,NW,304,1.0,3.0,95,0.00,,---,0.08,33.00,VWS V14.01,2013-01-15 17:01:00,
2013-01-15 11:03:00,34.3,33.0,30.17,NW,307,3.0,4.0,95,0.00,,---,0.08,46.00,VWS V14.01,2013-01-15 17:03:00,
2013-01-15 11:04:00,34.4,33.1,30.17,NE,44,1.0,4.0,95,0.00,,---,0.08,42.00,VWS V14.01,2013-01-15 17:04:00,
2013-01-15 11:06:00,34.4,33.1,30.17,NW,323,3.0,4.0,95,0.00,,---,0.08,46.00,VWS V14.01,2013-01-15 17:06:00,
2013-01-15 11:08:00,34.4,33.1,30.17,NE,46,2.0,5.0,95,0.00,,---,0.08,42.00,VWS V14.01,2013-01-15 17:08:00,
2013-01-15 11:09:00,34.4,33.1,30.17,NW,316,3.0,5.0,95,0.00,,---,0.08,35.00,VWS V14.01,2013-01-15 17:09:00,
2013-01-15 11:12:00,34.4,33.1,30.17,WNW,293,0.0,5.0,95,0.00,,---,0.08,26.00,VWS V14.01,2013-01-15 17:12:00,
2013-01-15 11:13:00,34.4,33.1,30.17,NW,319,2.0,5.0,95,0.00,,---,0.08,35.00,VWS V14.01,2013-01-15 17:13:00,
2013-01-15 11:14:00,34.4,33.1,30.17,NNW,342,0.0,5.0,95,0.00,,---,0.08,35.00,VWS V14.01,2013-01-15 17:14:00,
2013-01-15 11:15:00,34.4,33.1,30.17,NNW,342,0.0,5.0,95,0.00,,---,0.08,37.00,VWS V14.01,2013-01-15 17:15:00,
2013-01-15 11:17:00,34.4,33.1,30.17,NNW,327,1.0,5.0,95,0.00,,---,0.08,37.00,VWS V14.01,2013-01-15 17:17:00,
2013-01-15 11:19:00,34.4,33.1,30.17,NNW,327,2.0,5.0,95,0.00,,---,0.08,39.00,VWS V14.01,2013-01-15 17:19:00,
2013-01-15 11:20:00,34.5,33.2,30.17,NNW,332,2.0,5.0,95,0.00,,---,0.08,47.00,VWS V14.01,2013-01-15 17:20:00,
2013-01-15 11:21:00,34.5,33.2,30.17,NE,51,1.0,5.0,95,0.00,,---,0.08,53.00,VWS V14.01,2013-01-15 17:21:00,
2013-01-15 11:24:00,34.6,33.3,30.17,North,5,4.0,8.0,95,0.00,,---,0.08,47.00,VWS V14.01,2013-01-15 17:24:00,
2013-01-15 11:25:00,34.5,33.2,30.17,North,351,3.0,8.0,95,0.00,,---,0.08,51.00,VWS V14.01,2013-01-15 17:25:00,
2013-01-15 11:26:00,34.5,33.2,30.17,NNW,343,2.0,8.0,95,0.00,,---,0.08,51.00,VWS V14.01,2013-01-15 17:26:00,
2013-01-15 11:29:00,34.4,33.1,30.17,NNW,336,2.0,11.0,95,0.00,,---,0.08,51.00,VWS V14.01,2013-01-15 17:29:00,
2013-01-15 11:30:00,34.4,33.1,30.17,NNE,19,0.0,2.0,95,0.00,,---,0.08,44.00,VWS V14.01,2013-01-15 17:30:00,
2013-01-15 11:32:00,34.4,33.1,30.18,NNW,340,1.0,3.0,95,0.00,,---,0.08,35.00,VWS V14.01,2013-01-15 17:32:00,
2013-01-15 11:33:00,34.4,33.1,30.18,NNW,340,0.0,3.0,95,0.00,,---,0.08,35.00,VWS V14.01,2013-01-15 17:33:00,
2013-01-15 11:34:00,34.4,33.1,30.18,NNW,340,0.0,3.0,95,0.00,,---,0.08,39.00,VWS V14.01,2013-01-15 17:34:00,
2013-01-15 11:37:00,34.5,33.2,30.18,North,355,0.0,3.0,95,0.00,,---,0.08,40.00,VWS V14.01,2013-01-15 17:37:00,
2013-01-15 11:39:00,34.5,33.2,30.18,North,360,0.0,3.0,95,0.00,,---,0.08,46.00,VWS V14.01,2013-01-15 17:39:00,
2013-01-15 11:44:00,34.5,33.2,30.17,NW,323,2.0,6.0,95,0.00,,---,0.08,42.00,VWS V14.01,2013-01-15 17:44:00,
2013-01-15 11:45:00,34.5,33.2,30.17,NNW,331,0.0,6.0,95,0.00,,---,0.08,40.00,VWS V14.01,2013-01-15 17:45:00,
2013-01-15 11:49:00,34.5,33.2,30.16,NNW,336,1.0,6.0,95,0.00,,---,0.08,40.00,VWS V14.01,2013-01-15 17:49:00,
2013-01-15 11:50:00,34.5,33.2,30.16,NNW,336,1.0,6.0,95,0.00,,---,0.08,40.00,VWS V14.01,2013-01-15 17:50:00,
2013-01-15 11:54:00,34.5,33.2,30.14,ENE,63,3.0,6.0,95,0.00,,---,0.08,100.00,VWS V14.01,2013-01-15 17:54:00,
2013-01-15 11:56:00,34.6,33.3,30.14,NNW,345,3.0,12.0,95,0.00,,---,0.08,116.00,VWS V14.01,2013-01-15 17:56:00,
2013-01-15 11:59:00,34.7,33.4,30.13,North,5,0.0,12.0,95,0.00,,---,0.08,98.00,VWS V14.01,2013-01-15 17:59:00,
2013-01-15 12:00:00,34.7,33.4,30.13,North,5,1.0,12.0,95,0.00,,---,0.08,98.00,VWS V14.01,2013-01-15 18:00:00,
2013-01-15 12:01:00,34.8,33.5,30.14,NW,306,1.0,4.0,95,0.00,,---,0.08,88.00,VWS V14.01,2013-01-15 18:01:00,
2013-01-15 12:02:00,34.8,33.5,30.14,North,5,3.0,5.0,95,0.00,,---,0.08,77.00,VWS V14.01,2013-01-15 18:02:00,
2013-01-15 12:05:00,34.9,33.6,30.14,North,5,1.0,5.0,95,0.00,,---,0.08,56.00,VWS V14.01,2013-01-15 18:05:00,
2013-01-15 12:06:00,34.9,33.6,30.14,NW,311,3.0,5.0,95,0.00,,---,0.08,56.00,VWS V14.01,2013-01-15 18:06:00,
2013-01-15 12:08:00,34.9,33.6,30.14,NNE,12,1.0,5.0,95,0.00,,---,0.08,60.00,VWS V14.01,2013-01-15 18:08:00,
2013-01-15 12:10:00,35.0,33.7,30.14,NNE,12,0.0,5.0,95,0.00,,---,0.08,51.00,VWS V14.01,2013-01-15 18:10:00,
2013-01-15 12:12:00,35.0,33.7,30.14,NNE,12,1.0,5.0,95,0.00,,---,0.08,46.00,VWS V14.01,2013-01-15 18:12:00,
2013-01-15 12:14:00,35.0,33.7,30.13,North,9,0.0,5.0,95,0.00,,---,0.08,58.00,VWS V14.01,2013-01-15 18:14:00,
2013-01-15 12:17:00,35.0,33.7,30.13,NNW,339,4.0,5.0,95,0.00,,---,0.08,54.00,VWS V14.01,2013-01-15 18:17:00,
2013-01-15 12:20:00,35.1,33.8,30.14,North,355,0.0,5.0,95,0.00,,---,0.08,32.00,VWS V14.01,2013-01-15 18:20:00,
2013-01-15 12:22:00,35.1,33.8,30.14,WNW,300,2.0,5.0,95,0.00,,---,0.08,26.00,VWS V14.01,2013-01-15 18:22:00,
2013-01-15 12:25:00,35.0,33.7,30.15,NNW,330,0.0,5.0,95,0.00,,---,0.08,26.00,VWS V14.01,2013-01-15 18:25:00,
2013-01-15 12:27:00,35.0,33.7,30.15,NNW,330,1.0,5.0,95,0.00,,---,0.08,28.00,VWS V14.01,2013-01-15 18:27:00,
2013-01-15 12:28:00,35.1,33.8,30.15,NNW,330,1.0,5.0,95,0.00,,---,0.08,28.00,VWS V14.01,2013-01-15 18:28:00,
2013-01-15 12:30:00,35.1,33.8,30.14,NNW,346,0.0,5.0,95,0.00,,---,0.08,35.00,VWS V14.01,2013-01-15 18:30:00,
2013-01-15 12:31:00,35.1,33.8,30.14,NNW,346,0.0,4.0,95,0.00,,---,0.08,54.00,VWS V14.01,2013-01-15 18:31:00,
2013-01-15 12:32:00,35.1,33.8,30.13,NNW,346,0.0,4.0,95,0.00,,---,0.08,53.00,VWS V14.01,2013-01-15 18:32:00,
2013-01-15 12:33:00,35.1,33.8,30.14,North,355,3.0,5.0,95,0.00,,---,0.08,54.00,VWS V14.01,2013-01-15 18:33:00,
2013-01-15 12:37:00,35.1,33.8,30.14,ESE,115,1.0,5.0,95,0.00,,---,0.08,44.00,VWS V14.01,2013-01-15 18:37:00,
2013-01-15 12:38:00,35.1,33.8,30.14,NE,34,0.0,5.0,95,0.00,,---,0.08,46.00,VWS V14.01,2013-01-15 18:38:00,
2013-01-15 12:39:00,35.1,33.8,30.13,NE,34,1.0,5.0,95,0.00,,---,0.08,53.00,VWS V14.01,2013-01-15 18:39:00,
2013-01-15 12:44:00,35.2,33.9,30.13,NNE,26,0.0,5.0,95,0.00,,---,0.08,60.00,VWS V14.01,2013-01-15 18:44:00,
2013-01-15 12:45:00,35.2,33.9,30.13,NNE,26,1.0,5.0,95,0.00,,---,0.08,58.00,VWS V14.01,2013-01-15 18:45:00,
2013-01-15 12:49:00,35.3,34.0,30.12,NNW,328,0.0,5.0,95,0.00,,---,0.08,49.00,VWS V14.01,2013-01-15 18:49:00,
2013-01-15 12:50:00,35.3,34.0,30.12,NNW,339,3.0,6.0,95,0.00,,---,0.08,49.00,VWS V14.01,2013-01-15 18:50:00,
2013-01-15 12:55:00,35.3,34.0,30.11,WNW,297,2.0,6.0,95,0.00,,---,0.08,49.00,VWS V14.01,2013-01-15 18:55:00,
2013-01-15 12:56:00,35.2,33.9,30.11,NW,319,4.0,6.0,95,0.00,,---,0.08,49.00,VWS V14.01,2013-01-15 18:56:00,
2013-01-15 13:00:00,35.2,33.9,30.12,NNW,335,0.0,0.0,95,0.00,,---,0.08,35.00,VWS V14.01,2013-01-15 19:00:00,
2013-01-15 13:03:00,35.1,33.8,30.11,NNW,335,1.0,2.0,95,0.00,,---,0.08,35.00,VWS V14.01,2013-01-15 19:03:00,
2013-01-15 13:04:00,35.2,33.9,30.11,North,355,2.0,2.0,95,0.00,,---,0.08,42.00,VWS V14.01,2013-01-15 19:04:00,
2013-01-15 13:05:00,35.2,33.9,30.10,North,11,4.0,8.0,95,0.00,,---,0.08,62.00,VWS V14.01,2013-01-15 19:05:00,
2013-01-15 13:06:00,35.1,33.8,30.10,ENE,61,2.0,8.0,95,0.00,,---,0.08,63.00,VWS V14.01,2013-01-15 19:06:00,
2013-01-15 13:08:00,35.2,33.9,30.10,ENE,57,5.0,8.0,95,0.00,,---,0.08,44.00,VWS V14.01,2013-01-15 19:08:00,
2013-01-15 13:09:00,35.2,33.9,30.10,NW,306,2.0,8.0,95,0.00,,---,0.08,44.00,VWS V14.01,2013-01-15 19:09:00,
2013-01-15 13:10:00,35.1,33.8,30.10,NNW,342,2.0,8.0,95,0.00,,---,0.08,39.00,VWS V14.01,2013-01-15 19:10:00,
2013-01-15 13:11:00,35.2,33.9,30.10,NNW,340,1.0,8.0,95,0.00,,---,0.08,39.00,VWS V14.01,2013-01-15 19:11:00,
2013-01-15 13:13:00,35.1,33.8,30.10,NNW,342,0.0,8.0,95,0.00,,---,0.08,40.00,VWS V14.01,2013-01-15 19:13:00,
2013-01-15 13:14:00,35.1,33.8,30.11,NNW,342,0.0,8.0,95,0.00,,---,0.08,40.00,VWS V14.01,2013-01-15 19:14:00,
2013-01-15 13:16:00,35.1,33.8,30.10,North,5,2.0,8.0,95,0.00,,---,0.08,54.00,VWS V14.01,2013-01-15 19:16:00,
2013-01-15 13:17:00,35.2,33.9,30.10,NE,38,0.0,8.0,95,0.00,,---,0.08,62.00,VWS V14.01,2013-01-15 19:17:00,
2013-01-15 13:20:00,35.2,33.9,30.09,NE,44,4.0,8.0,95,0.00,,---,0.08,76.00,VWS V14.01,2013-01-15 19:20:00,
2013-01-15 13:22:00,35.2,33.9,30.10,NE,56,0.0,8.0,95,0.00,,---,0.08,63.00,VWS V14.01,2013-01-15 19:22:00,
2013-01-15 13:24:00,35.2,33.9,30.10,NNE,24,1.0,8.0,95,0.00,,---,0.08,69.00,VWS V14.01,2013-01-15 19:24:00,
2013-01-15 13:25:00,35.3,34.0,30.10,NNW,345,3.0,8.0,95,0.00,,---,0.08,70.00,VWS V14.01,2013-01-15 19:25:00,
2013-01-15 13:26:00,35.3,34.0,30.10,NNE,14,4.0,8.0,95,0.00,,---,0.08,70.00,VWS V14.01,2013-01-15 19:26:00,
2013-01-15 13:27:00,35.3,34.0,30.09,NNW,342,3.0,8.0,95,0.00,,---,0.08,79.00,VWS V14.01,2013-01-15 19:27:00,
2013-01-15 13:30:00,35.2,33.9,30.09,North,5,2.0,8.0,95,0.00,,---,0.08,91.00,VWS V14.01,2013-01-15 19:30:00,
2013-01-15 13:31:00,35.3,34.0,30.10,North,5,1.0,2.0,95,0.00,,---,0.08,95.00,VWS V14.01,2013-01-15 19:31:00,
2013-01-15 13:32:00,35.3,34.0,30.10,North,5,1.0,2.0,95,0.00,,---,0.08,83.00,VWS V14.01,2013-01-15 19:32:00,
2013-01-15 13:34:00,35.4,34.1,30.10,NNE,33,0.0,4.0,95,0.00,,---,0.08,69.00,VWS V14.01,2013-01-15 19:34:00,
2013-01-15 13:36:00,35.4,34.1,30.09,NNE,33,0.0,4.0,95,0.00,,---,0.08,84.00,VWS V14.01,2013-01-15 19:36:00,
2013-01-15 13:38:00,35.5,34.2,30.08,NE,56,0.0,4.0,95,0.00,,---,0.08,104.00,VWS V14.01,2013-01-15 19:38:00,
2013-01-15 13:39:00,35.6,34.3,30.08,ENE,57,0.0,4.0,95,0.00,,---,0.08,95.00,VWS V14.01,2013-01-15 19:39:00,
2013-01-15 13:41:00,35.7,34.4,30.09,North,355,4.0,4.0,95,0.00,,---,0.08,65.00,VWS V14.01,2013-01-15 19:41:00,
2013-01-15 13:43:00,35.7,34.4,30.10,WNW,294,1.0,7.0,95,0.00,,---,0.08,40.00,VWS V14.01,2013-01-15 19:43:00,
2013-01-15 13:44:00,35.7,34.4,30.10,North,5,1.0,7.0,95,0.00,,---,0.08,39.00,VWS V14.01,2013-01-15 19:44:00,
2013-01-15 13:47:00,35.7,34.4,30.11,North,11,4.0,7.0,95,0.00,,---,0.08,39.00,VWS V14.01,2013-01-15 19:47:00,
2013-01-15 13:50:00,35.7,34.4,30.10,North,350,0.0,7.0,95,0.00,,---,0.08,37.00,VWS V14.01,2013-01-15 19:50:00,
2013-01-15 13:51:00,35.7,34.4,30.10,North,351,0.0,7.0,95,0.00,,---,0.08,35.00,VWS V14.01,2013-01-15 19:51:00,
2013-01-15 13:53:00,35.7,34.4,30.10,NNW,344,2.0,7.0,95,0.00,,---,0.08,77.00,VWS V14.01,2013-01-15 19:53:00,
2013-01-15 13:56:00,35.7,34.4,30.09,North,360,2.0,7.0,95,0.00,,---,0.08,76.00,VWS V14.01,2013-01-15 19:56:00,
2013-01-15 13:58:00,35.7,34.4,30.10,North,360,0.0,7.0,95,0.00,,---,0.08,72.00,VWS V14.01,2013-01-15 19:58:00,
2013-01-15 14:00:00,35.7,34.4,30.09,NNW,332,2.0,2.0,95,0.00,,---,0.08,74.00,VWS V14.01,2013-01-15 20:00:00,
2013-01-15 14:01:00,35.7,34.4,30.09,NNW,332,1.0,2.0,95,0.00,,---,0.08,79.00,VWS V14.01,2013-01-15 20:01:00,
2013-01-15 14:02:00,35.7,34.4,30.09,NNW,332,3.0,3.0,95,0.00,,---,0.08,76.00,VWS V14.01,2013-01-15 20:02:00,
2013-01-15 14:03:00,35.8,34.5,30.10,NNW,332,0.0,3.0,95,0.00,,---,0.08,69.00,VWS V14.01,2013-01-15 20:03:00,
2013-01-15 14:05:00,35.8,34.5,30.10,NNW,332,1.0,3.0,95,0.00,,---,0.08,53.00,VWS V14.01,2013-01-15 20:05:00,
2013-01-15 14:06:00,35.8,34.5,30.10,NNW,332,2.0,4.0,95,0.00,,---,0.08,53.00,VWS V14.01,2013-01-15 20:06:00,
2013-01-15 14:07:00,35.8,34.5,30.10,NW,315,0.0,4.0,95,0.00,,---,0.08,46.00,VWS V14.01,2013-01-15 20:07:00,
2013-01-15 14:09:00,35.8,34.5,30.10,WNW,286,3.0,5.0,95,0.00,,---,0.08,42.00,VWS V14.01,2013-01-15 20:09:00,
2013-01-15 14:11:00,35.7,34.4,30.10,NNW,337,4.0,7.0,95,0.00,,---,0.08,47.00,VWS V14.01,2013-01-15 20:11:00,
2013-01-15 14:12:00,35.7,34.4,30.10,NNE,15,2.0,7.0,95,0.00,,---,0.08,56.00,VWS V14.01,2013-01-15 20:12:00,
2013-01-15 14:14:00,35.7,34.4,30.10,NNE,15,1.0,7.0,95,0.00,,---,0.08,51.00,VWS V14.01,2013-01-15 20:14:00,
2013-01-15 14:16:00,35.7,34.4,30.10,NW,321,2.0,7.0,95,0.00,,---,0.08,47.00,VWS V14.01,2013-01-15 20:16:00,
2013-01-15 14:17:00,35.7,34.4,30.10,NW,321,1.0,7.0,95,0.00,,---,0.08,47.00,VWS V14.01,2013-01-15 20:17:00,
2013-01-15 14:19:00,35.8,34.5,30.09,NNE,18,0.0,7.0,95,0.00,,---,0.08,69.00,VWS V14.01,2013-01-15 20:19:00,
2013-01-15 14:21:00,35.8,34.5,30.09,NNE,32,1.0,7.0,95,0.00,,---,0.08,69.00,VWS V14.01,2013-01-15 20:21:00,
2013-01-15 14:22:00,35.8,34.5,30.09,NNE,32,0.0,7.0,95,0.00,,---,0.08,65.00,VWS V14.01,2013-01-15 20:22:00,
2013-01-15 14:24:00,35.8,34.5,30.09,North,360,5.0,7.0,95,0.00,,---,0.08,69.00,VWS V14.01,2013-01-15 20:24:00,
2013-01-15 14:26:00,35.8,34.5,30.09,NNE,26,1.0,7.0,95,0.00,,---,0.08,72.00,VWS V14.01,2013-01-15 20:26:00,
2013-01-15 14:28:00,35.9,34.6,30.08,North,355,0.0,7.0,95,0.00,,---,0.08,83.00,VWS V14.01,2013-01-15 20:28:00,
2013-01-15 14:30:00,36.0,34.7,30.08,North,355,0.0,1.0,95,0.00,,---,0.08,81.00,VWS V14.01,2013-01-15 20:30:00,
2013-01-15 14:32:00,36.0,34.7,30.09,North,355,0.0,2.0,95,0.00,,---,0.08,54.00,VWS V14.01,2013-01-15 20:32:00,
2013-01-15 14:33:00,36.1,34.8,30.10,NNW,327,3.0,3.0,95,0.00,,---,0.08,54.00,VWS V14.01,2013-01-15 20:33:00,
2013-01-15 14:34:00,36.1,34.8,30.09,WNW,298,4.0,5.0,95,0.00,,---,0.08,54.00,VWS V14.01,2013-01-15 20:34:00,
2013-01-15 14:35:00,36.0,34.7,30.09,NNE,22,4.0,7.0,95,0.00,,---,0.08,51.00,VWS V14.01,2013-01-15 20:35:00,
2013-01-15 14:38:00,36.0,34.7,30.09,WNW,294,1.0,7.0,95,0.00,,---,0.08,56.00,VWS V14.01,2013-01-15 20:38:00,
2013-01-15 14:41:00,36.1,34.8,30.08,NNW,340,3.0,7.0,95,0.00,,---,0.08,54.00,VWS V14.01,2013-01-15 20:41:00,
2013-01-15 14:42:00,36.1,34.8,30.09,ENE,67,1.0,7.0,95,0.00,,---,0.08,51.00,VWS V14.01,2013-01-15 20:42:00,
2013-01-15 14:44:00,36.1,34.8,30.09,WNW,282,0.0,7.0,95,0.00,,---,0.08,42.00,VWS V14.01,2013-01-15 20:44:00,
2013-01-15 14:46:00,36.1,34.8,30.09,NW,308,0.0,7.0,95,0.00,,---,0.08,35.00,VWS V14.01,2013-01-15 20:46:00,
2013-01-15 14:49:00,36.1,34.8,30.09,NW,313,1.0,7.0,95,0.00,,---,0.08,33.00,VWS V14.01,2013-01-15 20:49:00,
2013-01-15 14:50:00,36.1,34.8,30.09,NW,313,1.0,7.0,95,0.00,,---,0.08,30.00,VWS V14.01,2013-01-15 20:50:00,
2013-01-15 14:52:00,36.1,34.8,30.09,NW,317,2.0,7.0,95,0.00,,---,0.08,30.00,VWS V14.01,2013-01-15 20:52:00,
2013-01-15 14:55:00,36.1,34.8,30.09,WNW,284,0.0,7.0,95,0.00,,---,0.08,28.00,VWS V14.01,2013-01-15 20:55:00,
2013-01-15 14:57:00,36.1,34.8,30.09,NW,307,0.0,7.0,95,0.00,,---,0.08,28.00,VWS V14.01,2013-01-15 20:57:00,
2013-01-15 15:00:00,36.1,34.8,30.10,NW,310,1.0,3.0,95,0.00,,---,0.08,28.00,VWS V14.01,2013-01-15 21:00:00,
2013-01-15 15:03:00,36.1,34.8,30.10,NW,312,3.0,6.0,95,0.00,,---,0.08,26.00,VWS V14.01,2013-01-15 21:03:00,
2013-01-15 15:04:00,36.1,34.8,30.09,NW,307,2.0,6.0,95,0.00,,---,0.08,26.00,VWS V14.01,2013-01-15 21:04:00,
2013-01-15 15:05:00,36.1,34.8,30.09,NW,315,3.0,6.0,95,0.00,,---,0.08,25.00,VWS V14.01,2013-01-15 21:05:00,
2013-01-15 15:06:00,36.1,34.8,30.09,NW,315,2.0,6.0,95,0.00,,---,0.08,25.00,VWS V14.01,2013-01-15 21:06:00,
2013-01-15 15:08:00,36.0,34.4,30.10,WNW,303,1.0,6.0,94,0.00,,---,0.08,21.00,VWS V14.01,2013-01-15 21:08:00,
2013-01-15 15:11:00,36.1,34.8,30.10,NNW,342,2.0,6.0,95,0.00,,---,0.08,21.00,VWS V14.01,2013-01-15 21:11:00,
2013-01-15 15:15:00,36.1,34.8,30.10,NNW,342,2.0,6.0,95,0.00,,---,0.08,25.00,VWS V14.01,2013-01-15 21:15:00,
2013-01-15 15:16:00,36.1,34.8,30.10,NW,304,2.0,6.0,95,0.00,,---,0.08,25.00,VWS V14.01,2013-01-15 21:16:00,
2013-01-15 15:17:00,36.1,34.5,30.10,NW,304,2.0,6.0,94,0.00,,---,0.08,25.00,VWS V14.01,2013-01-15 21:17:00,
2013-01-15 15:18:00,36.1,34.5,30.10,NNW,334,4.0,6.0,94,0.00,,---,0.08,26.00,VWS V14.01,2013-01-15 21:18:00,
2013-01-15 15:20:00,36.1,34.5,30.09,North,355,3.0,7.0,94,0.00,,---,0.08,26.00,VWS V14.01,2013-01-15 21:20:00,
2013-01-15 15:23:00,36.1,34.5,30.09,WNW,298,2.0,7.0,94,0.00,,---,0.08,28.00,VWS V14.01,2013-01-15 21:23:00,
2013-01-15 15:26:00,36.1,34.5,30.10,West,280,2.0,7.0,94,0.00,,---,0.08,28.00,VWS V14.01,2013-01-15 21:26:00,
2013-01-15 15:27:00,36.0,34.4,30.10,WNW,300,0.0,7.0,94,0.00,,---,0.08,21.00,VWS V14.01,2013-01-15 21:27:00,
2013-01-15 15:29:00,36.1,34.5,30.11,NW,316,0.0,7.0,94,0.00,,---,0.08,21.00,VWS V14.01,2013-01-15 21:29:00,
2013-01-15 15:30:00,36.1,34.5,30.11,NW,321,4.0,7.0,94,0.00,,---,0.08,18.00,VWS V14.01,2013-01-15 21:30:00,
2013-01-15 15:32:00,36.0,34.4,30.12,WNW,289,3.0,4.0,94,0.00,,---,0.08,14.00,VWS V14.01,2013-01-15 21:32:00,
2013-01-15 15:34:00,36.0,34.4,30.12,NW,314,3.0,4.0,94,0.00,,---,0.08,14.00,VWS V14.01,2013-01-15 21:34:00,
2013-01-15 15:38:00,36.0,34.4,30.10,NNW,337,0.0,4.0,94,0.00,,---,0.08,18.00,VWS V14.01,2013-01-15 21:38:00,
2013-01-15 15:40:00,36.0,34.4,30.10,NW,308,2.0,4.0,94,0.00,,---,0.08,16.00,VWS V14.01,2013-01-15 21:40:00,
2013-01-15 15:41:00,36.0,34.4,30.11,NW,308,2.0,4.0,94,0.00,,---,0.08,14.00,VWS V14.01,2013-01-15 21:41:00,
2013-01-15 15:43:00,36.0,34.4,30.11,NW,309,1.0,4.0,94,0.00,,---,0.08,12.00,VWS V14.01,2013-01-15 21:43:00,
2013-01-15 15:47:00,36.1,34.5,30.11,NW,323,3.0,7.0,94,0.00,,---,0.08,14.00,VWS V14.01,2013-01-15 21:47:00,
2013-01-15 15:48:00,36.0,34.4,30.11,NNW,345,3.0,7.0,94,0.00,,---,0.08,14.00,VWS V14.01,2013-01-15 21:48:00,
2013-01-15 15:52:00,35.9,34.3,30.12,NW,321,3.0,7.0,94,0.00,,---,0.08,16.00,VWS V14.01,2013-01-15 21:52:00,
2013-01-15 15:53:00,35.9,34.3,30.11,NW,313,4.0,7.0,94,0.00,,---,0.08,19.00,VWS V14.01,2013-01-15 21:53:00,
2013-01-15 15:57:00,35.9,34.3,30.11,NW,317,2.0,7.0,94,0.00,,---,0.08,26.00,VWS V14.01,2013-01-15 21:57:00,
2013-01-15 15:59:00,35.9,34.3,30.11,NNW,342,3.0,7.0,94,0.00,,---,0.08,26.00,VWS V14.01,2013-01-15 21:59:00,
2013-01-15 16:00:00,35.9,34.3,30.11,North,350,4.0,7.0,94,0.00,,---,0.08,30.00,VWS V14.01,2013-01-15 22:00:00,
2013-01-15 16:03:00,35.8,34.2,30.11,NW,323,5.0,7.0,94,0.00,,---,0.08,26.00,VWS V14.01,2013-01-15 22:03:00,
2013-01-15 16:04:00,35.8,34.2,30.12,NNW,329,3.0,7.0,94,0.00,,---,0.08,26.00,VWS V14.01,2013-01-15 22:04:00,
2013-01-15 16:05:00,35.8,34.2,30.13,NW,308,2.0,7.0,94,0.00,,---,0.08,23.00,VWS V14.01,2013-01-15 22:05:00,
2013-01-15 16:08:00,35.9,34.3,30.12,NNE,15,1.0,9.0,94,0.00,,---,0.08,21.00,VWS V14.01,2013-01-15 22:08:00,
2013-01-15 16:10:00,35.8,34.2,30.12,NNW,338,2.0,9.0,94,0.00,,---,0.08,18.00,VWS V14.01,2013-01-15 22:10:00,
2013-01-15 16:11:00,35.8,34.2,30.12,North,355,3.0,9.0,94,0.00,,---,0.08,18.00,VWS V14.01,2013-01-15 22:11:00,
2013-01-15 16:12:00,35.8,34.2,30.12,North,355,0.0,9.0,94,0.00,,---,0.08,16.00,VWS V14.01,2013-01-15 22:12:00,
2013-01-15 16:14:00,35.8,34.2,30.12,NW,304,1.0,9.0,94,0.00,,---,0.08,14.00,VWS V14.01,2013-01-15 22:14:00,
2013-01-15 16:15:00,35.8,34.2,30.12,NNW,329,4.0,9.0,94,0.00,,---,0.08,14.00,VWS V14.01,2013-01-15 22:15:00,
2013-01-15 16:17:00,35.7,34.2,30.12,NNW,340,1.0,9.0,94,0.00,,---,0.08,16.00,VWS V14.01,2013-01-15 22:17:00,
2013-01-15 16:22:00,35.7,34.2,30.13,NW,304,0.0,9.0,94,0.00,,---,0.08,11.00,VWS V14.01,2013-01-15 22:22:00,
2013-01-15 16:27:00,35.7,34.2,30.13,NW,315,0.0,9.0,94,0.00,,---,0.08,14.00,VWS V14.01,2013-01-15 22:27:00,
2013-01-15 16:28:00,35.7,34.2,30.13,NW,315,1.0,9.0,94,0.00,,---,0.08,14.00,VWS V14.01,2013-01-15 22:28:00,
2013-01-15 16:30:00,35.7,34.2,30.13,NW,315,2.0,9.0,94,0.00,,---,0.08,12.00,VWS V14.01,2013-01-15 22:30:00,
2013-01-15 16:32:00,35.7,34.2,30.14,NW,315,1.0,3.0,94,0.00,,---,0.08,11.00,VWS V14.01,2013-01-15 22:32:00,
2013-01-15 16:33:00,35.6,34.0,30.14,NW,315,1.0,3.0,94,0.00,,---,0.08,11.00,VWS V14.01,2013-01-15 22:33:00,
2013-01-15 16:34:00,35.6,34.0,30.14,West,278,3.0,5.0,94,0.00,,---,0.08,12.00,VWS V14.01,2013-01-15 22:34:00,
2013-01-15 16:38:00,35.6,34.0,30.14,NNW,335,1.0,5.0,94,0.00,,---,0.08,9.00,VWS V14.01,2013-01-15 22:38:00,
2013-01-15 16:39:00,35.6,34.0,30.14,NW,320,1.0,6.0,94,0.00,,---,0.08,5.00,VWS V14.01,2013-01-15 22:39:00,
2013-01-15 16:42:00,35.5,34.0,30.14,NW,307,1.0,9.0,94,0.00,,---,0.08,7.00,VWS V14.01,2013-01-15 22:42:00,
2013-01-15 16:43:00,35.5,34.0,30.13,NNW,336,6.0,9.0,94,0.00,,---,0.08,7.00,VWS V14.01,2013-01-15 22:43:00,
2013-01-15 16:45:00,35.4,33.8,30.13,NW,317,2.0,9.0,94,0.00,,---,0.08,7.00,VWS V14.01,2013-01-15 22:45:00,
2013-01-15 16:48:00,35.3,33.8,30.13,NNW,340,3.0,9.0,94,0.00,,---,0.08,9.00,VWS V14.01,2013-01-15 22:48:00,
2013-01-15 16:49:00,35.3,33.8,30.13,NW,306,5.0,9.0,94,0.00,,---,0.08,7.00,VWS V14.01,2013-01-15 22:49:00,
2013-01-15 16:51:00,35.2,33.7,30.13,West,281,6.0,9.0,94,0.00,,---,0.08,7.00,VWS V14.01,2013-01-15 22:51:00,
2013-01-15 16:54:00,35.1,33.5,30.14,NNW,340,3.0,9.0,94,0.00,,---,0.08,5.00,VWS V14.01,2013-01-15 22:54:00,
2013-01-15 16:55:00,35.1,33.5,30.14,North,355,5.0,9.0,94,0.00,,---,0.08,5.00,VWS V14.01,2013-01-15 22:55:00,
2013-01-15 16:56:00,35.1,33.5,30.14,NW,324,2.0,9.0,94,0.00,,---,0.08,5.00,VWS V14.01,2013-01-15 22:56:00,
2013-01-15 17:00:00,35.0,33.5,30.14,West,279,3.0,7.0,94,0.00,,---,0.08,5.00,VWS V14.01,2013-01-15 23:00:00,
2013-01-15 17:01:00,35.0,33.5,30.14,NE,39,4.0,7.0,94,0.00,,---,0.08,5.00,VWS V14.01,2013-01-15 23:01:00,
2013-01-15 17:05:00,34.9,33.3,30.15,WNW,299,2.0,8.0,94,0.00,,---,0.08,5.00,VWS V14.01,2013-01-15 23:05:00,
2013-01-15 17:06:00,34.9,33.3,30.14,WNW,298,2.0,8.0,94,0.00,,---,0.08,5.00,VWS V14.01,2013-01-15 23:06:00,
2013-01-15 17:07:00,34.9,33.3,30.14,North,9,7.0,8.0,94,0.00,,---,0.08,5.00,VWS V14.01,2013-01-15 23:07:00,
2013-01-15 17:11:00,34.9,33.6,30.13,NE,45,3.0,8.0,95,0.00,,---,0.08,0.00,VWS V14.01,2013-01-15 23:11:00,
2013-01-15 17:14:00,34.8,33.5,30.12,NW,308,3.0,8.0,95,0.00,,---,0.08,0.00,VWS V14.01,2013-01-15 23:14:00,
2013-01-15 17:16:00,34.8,33.5,30.13,NW,304,2.0,8.0,95,0.00,,---,0.08,0.00,VWS V14.01,2013-01-15 23:16:00,
2013-01-15 17:17:00,34.8,33.5,30.13,NNE,13,3.0,8.0,95,0.00,,---,0.08,0.00,VWS V14.01,2013-01-15 23:17:00,
2013-01-15 17:19:00,34.8,33.5,30.14,WNW,286,6.0,9.0,95,0.00,,---,0.08,0.00,VWS V14.01,2013-01-15 23:19:00,
2013-01-15 17:21:00,34.7,33.2,30.13,NE,42,0.0,9.0,94,0.00,,---,0.08,0.00,VWS V14.01,2013-01-15 23:21:00,
2013-01-15 17:22:00,34.7,33.2,30.13,North,360,2.0,9.0,94,0.00,,---,0.08,0.00,VWS V14.01,2013-01-15 23:22:00,
2013-01-15 17:26:00,34.7,33.2,30.13,WNW,300,3.0,9.0,94,0.00,,---,0.08,0.00,VWS V14.01,2013-01-15 23:26:00,
2013-01-15 17:27:00,34.7,33.2,30.13,NNW,338,2.0,9.0,94,0.00,,---,0.08,0.00,VWS V14.01,2013-01-15 23:27:00,
2013-01-15 17:28:00,34.7,33.2,30.13,NNW,332,5.0,9.0,94,0.00,,---,0.08,0.00,VWS V14.01,2013-01-15 23:28:00,
2013-01-15 17:30:00,34.7,33.2,30.14,NW,307,1.0,9.0,94,0.00,,---,0.08,0.00,VWS V14.01,2013-01-15 23:30:00,
2013-01-15 17:31:00,34.7,33.2,30.14,West,271,5.0,5.0,94,0.00,,---,0.08,0.00,VWS V14.01,2013-01-15 23:31:00,
2013-01-15 17:33:00,34.7,33.2,30.14,WNW,299,3.0,6.0,94,0.00,,---,0.08,0.00,VWS V14.01,2013-01-15 23:33:00,
2013-01-15 17:35:00,34.7,33.2,30.14,WNW,301,3.0,6.0,94,0.00,,---,0.08,0.00,VWS V14.01,2013-01-15 23:35:00,
2013-01-15 17:37:00,34.6,33.3,30.13,NW,323,3.0,6.0,95,0.00,,---,0.08,0.00,VWS V14.01,2013-01-15 23:37:00,
2013-01-15 17:39:00,34.6,33.3,30.14,NW,325,2.0,6.0,95,0.00,,---,0.08,0.00,VWS V14.01,2013-01-15 23:39:00,
2013-01-15 17:41:00,34.7,33.4,30.14,WNW,299,2.0,7.0,95,0.00,,---,0.08,0.00,VWS V14.01,2013-01-15 23:41:00,
2013-01-15 17:42:00,34.6,33.3,30.14,WNW,302,3.0,7.0,95,0.00,,---,0.08,0.00,VWS V14.01,2013-01-15 23:42:00,
2013-01-15 17:44:00,34.6,33.3,30.14,NNE,15,4.0,7.0,95,0.00,,---,0.08,0.00,VWS V14.01,2013-01-15 23:44:00,
2013-01-15 17:46:00,34.6,33.3,30.15,NNW,338,1.0,7.0,95,0.00,,---,0.08,0.00,VWS V14.01,2013-01-15 23:46:00,
2013-01-15 17:49:00,34.6,33.3,30.15,NNW,337,1.0,7.0,95,0.00,,---,0.08,0.00,VWS V14.01,2013-01-15 23:49:00,
2013-01-15 17:50:00,34.6,33.3,30.14,NNW,343,2.0,7.0,95,0.00,,---,0.08,0.00,VWS V14.01,2013-01-15 23:50:00,
2013-01-15 17:54:00,34.6,33.3,30.13,NW,317,2.0,7.0,95,0.00,,---,0.08,0.00,VWS V14.01,2013-01-15 23:54:00,
2013-01-15 17:55:00,34.6,33.3,30.13,NW,310,1.0,7.0,95,0.00,,---,0.08,0.00,VWS V14.01,2013-01-15 23:55:00,
2013-01-15 17:59:00,34.6,33.3,30.14,WNW,303,0.0,9.0,95,0.00,,---,0.08,0.00,VWS V14.01,2013-01-15 23:59:00,
2013-01-15 18:00:00,34.6,33.3,30.14,WNW,286,2.0,5.0,95,0.00,,---,0.08,0.00,VWS V14.01,2013-01-16 00:00:00,
2013-01-15 18:01:00,34.6,33.3,30.14,NW,309,1.0,5.0,95,0.00,,---,0.08,0.00,VWS V14.01,2013-01-16 00:01:00,
2013-01-15 18:05:00,34.6,33.3,30.14,NNW,334,2.0,6.0,95,0.00,,---,0.08,0.00,VWS V14.01,2013-01-16 00:05:00,
2013-01-15 18:30:00,34.3,33.0,30.17,North,355,1.0,8.0,95,0.00,,---,0.08,0.00,VWS V14.01,2013-01-16 00:30:00,
2013-01-15 19:00:00,34.3,33.0,30.17,West,271,5.0,8.0,95,0.00,,---,0.08,0.00,VWS V14.01,2013-01-16 01:00:00,
2013-01-15 19:30:00,34.2,32.9,30.18,NNW,334,3.0,9.0,95,0.00,,---,0.08,0.00,VWS V14.01,2013-01-16 01:30:00,
2013-01-15 20:00:00,34.0,32.7,30.18,NW,317,1.0,8.0,95,0.00,,---,0.08,0.00,VWS V14.01,2013-01-16 02:00:00,
2013-01-15 20:30:00,33.9,32.6,30.20,NW,304,2.0,8.0,95,0.00,,---,0.08,0.00,VWS V14.01,2013-01-16 02:30:00,
2013-01-15 21:00:00,34.0,32.7,30.19,NW,325,2.0,10.0,95,0.00,,---,0.08,0.00,VWS V14.01,2013-01-16 03:00:00,
2013-01-15 21:30:00,34.0,32.7,30.20,WNW,294,3.0,8.0,95,0.00,,---,0.08,0.00,VWS V14.01,2013-01-16 03:30:00,
2013-01-15 22:00:00,34.2,32.9,30.21,WNW,288,1.0,2.0,95,0.00,,---,0.08,0.00,VWS V14.01,2013-01-16 04:00:00,
2013-01-15 22:01:00,34.2,32.9,30.21,North,351,3.0,4.0,95,0.00,,---,0.08,0.00,VWS V14.01,2013-01-16 04:01:00,
2013-01-15 22:05:00,34.2,32.9,30.20,North,5,2.0,7.0,95,0.00,,---,0.08,0.00,VWS V14.01,2013-01-16 04:05:00,
2013-01-15 22:06:00,34.2,32.9,30.20,NNW,340,4.0,7.0,95,0.00,,---,0.08,0.00,VWS V14.01,2013-01-16 04:06:00,
2013-01-15 22:10:00,34.2,32.9,30.21,NW,318,3.0,9.0,95,0.00,,---,0.08,0.00,VWS V14.01,2013-01-16 04:10:00,
2013-01-15 22:11:00,34.2,32.9,30.21,NNW,328,3.0,9.0,95,0.00,,---,0.08,0.00,VWS V14.01,2013-01-16 04:11:00,
2013-01-15 22:14:00,34.2,32.9,30.21,NW,315,2.0,9.0,95,0.00,,---,0.08,0.00,VWS V14.01,2013-01-16 04:14:00,
2013-01-15 22:16:00,34.2,32.9,30.20,SW,233,5.0,9.0,95,0.00,,---,0.08,0.00,VWS V14.01,2013-01-16 04:16:00,
2013-01-15 22:19:00,34.2,32.9,30.19,NNW,344,2.0,9.0,95,0.00,,---,0.08,0.00,VWS V14.01,2013-01-16 04:19:00,
2013-01-15 22:21:00,34.2,32.9,30.19,WNW,293,3.0,9.0,95,0.00,,---,0.08,0.00,VWS V14.01,2013-01-16 04:21:00,
2013-01-15 22:22:00,34.2,32.9,30.19,NNW,334,2.0,9.0,95,0.00,,---,0.08,0.00,VWS V14.01,2013-01-16 04:22:00,
2013-01-15 22:23:00,34.2,32.9,30.19,NW,308,2.0,9.0,95,0.00,,---,0.08,0.00,VWS V14.01,2013-01-16 04:23:00,
2013-01-15 22:25:00,34.2,32.9,30.19,NW,322,10.0,10.0,95,0.00,,---,0.08,0.00,VWS V14.01,2013-01-16 04:25:00,
2013-01-15 22:27:00,34.2,32.9,30.19,North,355,1.0,11.0,95,0.00,,---,0.08,0.00,VWS V14.01,2013-01-16 04:27:00,
2013-01-15 22:28:00,34.2,32.9,30.19,North,351,0.0,11.0,95,0.00,,---,0.08,0.00,VWS V14.01,2013-01-16 04:28:00,
2013-01-15 22:29:00,34.2,32.9,30.19,North,351,0.0,11.0,95,0.00,,---,0.08,0.00,VWS V14.01,2013-01-16 04:29:00,
2013-01-15 22:30:00,34.1,32.8,30.19,NW,311,3.0,11.0,95,0.00,,---,0.08,0.00,VWS V14.01,2013-01-16 04:30:00,
2013-01-15 22:31:00,34.2,32.9,30.19,North,360,4.0,8.0,95,0.00,,---,0.08,0.00,VWS V14.01,2013-01-16 04:31:00,
2013-01-15 22:34:00,34.1,32.8,30.18,WNW,284,3.0,8.0,95,0.00,,---,0.08,0.00,VWS V14.01,2013-01-16 04:34:00,
2013-01-15 22:36:00,34.1,32.8,30.19,WNW,302,6.0,8.0,95,0.00,,---,0.08,0.00,VWS V14.01,2013-01-16 04:36:00,
2013-01-15 22:40:00,34.1,32.8,30.20,West,276,9.0,11.0,95,0.00,,---,0.08,0.00,VWS V14.01,2013-01-16 04:40:00,
2013-01-15 22:41:00,34.1,32.8,30.20,NNW,333,2.0,11.0,95,0.00,,---,0.08,0.00,VWS V14.01,2013-01-16 04:41:00,
2013-01-15 22:45:00,34.1,32.8,30.20,NW,311,3.0,11.0,95,0.00,,---,0.08,0.00,VWS V14.01,2013-01-16 04:45:00,
2013-01-15 22:46:00,34.1,32.8,30.19,North,355,3.0,11.0,95,0.00,,---,0.08,0.00,VWS V14.01,2013-01-16 04:46:00,
2013-01-15 22:50:00,34.1,32.8,30.20,NW,325,4.0,11.0,95,0.00,,---,0.08,0.00,VWS V14.01,2013-01-16 04:50:00,
2013-01-15 22:51:00,34.1,32.8,30.20,NW,315,1.0,11.0,95,0.00,,---,0.08,0.00,VWS V14.01,2013-01-16 04:51:00,
2013-01-15 22:56:00,34.1,32.8,30.19,WNW,301,2.0,11.0,95,0.00,,---,0.08,0.00,VWS V14.01,2013-01-16 04:56:00,
2013-01-15 22:57:00,34.1,32.8,30.19,West,267,1.0,11.0,95,0.00,,---,0.08,0.00,VWS V14.01,2013-01-16 04:57:00,
2013-01-15 22:58:00,34.1,32.8,30.19,North,360,3.0,11.0,95,0.00,,---,0.08,0.00,VWS V14.01,2013-01-16 04:58:00,
2013-01-15 22:59:00,34.1,32.8,30.20,NNE,16,7.0,11.0,95,0.00,,---,0.08,0.00,VWS V14.01,2013-01-16 04:59:00,
2013-01-15 23:00:00,34.1,32.8,30.20,NNE,20,4.0,11.0,95,0.00,,---,0.08,0.00,VWS V14.01,2013-01-16 05:00:00,
2013-01-15 23:02:00,34.1,32.8,30.19,NW,306,3.0,12.0,95,0.00,,---,0.08,0.00,VWS V14.01,2013-01-16 05:02:00,
2013-01-15 23:03:00,34.1,32.8,30.19,North,355,8.0,12.0,95,0.00,,---,0.08,0.00,VWS V14.01,2013-01-16 05:03:00,
2013-01-15 23:05:00,34.1,32.8,30.19,NNW,327,7.0,12.0,95,0.00,,---,0.08,0.00,VWS V14.01,2013-01-16 05:05:00,
2013-01-15 23:08:00,34.1,32.8,30.20,NW,315,0.0,12.0,95,0.00,,---,0.08,0.00,VWS V14.01,2013-01-16 05:08:00,
2013-01-15 23:10:00,34.1,32.8,30.20,WNW,288,0.0,12.0,95,0.00,,---,0.08,0.00,VWS V14.01,2013-01-16 05:10:00,
2013-01-15 23:11:00,34.1,32.8,30.20,WNW,288,0.0,12.0,95,0.00,,---,0.08,0.00,VWS V14.01,2013-01-16 05:11:00,
2013-01-15 23:13:00,34.1,32.8,30.21,NNW,344,1.0,12.0,95,0.00,,---,0.08,0.00,VWS V14.01,2013-01-16 05:13:00,
2013-01-15 23:16:00,34.1,32.8,30.20,NNW,332,4.0,12.0,95,0.00,,---,0.08,0.00,VWS V14.01,2013-01-16 05:16:00,
2013-01-15 23:18:00,34.1,32.8,30.20,NW,321,1.0,12.0,95,0.00,,---,0.08,0.00,VWS V14.01,2013-01-16 05:18:00,
2013-01-15 23:19:00,34.1,32.8,30.20,NW,321,0.0,12.0,95,0.00,,---,0.08,0.00,VWS V14.01,2013-01-16 05:19:00,
2013-01-15 23:22:00,34.2,32.9,30.20,WNW,292,3.0,12.0,95,0.00,,---,0.08,0.00,VWS V14.01,2013-01-16 05:22:00,
2013-01-15 23:24:00,34.2,32.9,30.20,NW,307,3.0,12.0,95,0.00,,---,0.08,0.00,VWS V14.01,2013-01-16 05:24:00,
2013-01-15 23:25:00,34.2,32.9,30.20,NNW,331,2.0,12.0,95,0.00,,---,0.08,0.00,VWS V14.01,2013-01-16 05:25:00,
2013-01-15 23:26:00,34.2,32.9,30.20,WNW,292,4.0,12.0,95,0.00,,---,0.08,0.00,VWS V14.01,2013-01-16 05:26:00,
2013-01-15 23:27:00,34.2,32.9,30.20,WNW,295,3.0,12.0,95,0.00,,---,0.08,0.00,VWS V14.01,2013-01-16 05:27:00,
2013-01-15 23:30:00,34.2,32.9,30.20,North,355,2.0,4.0,95,0.00,,---,0.08,0.00,VWS V14.01,2013-01-16 05:30:00,
2013-01-15 23:31:00,34.2,32.9,30.20,NW,314,2.0,6.0,95,0.00,,---,0.08,0.00,VWS V14.01,2013-01-16 05:31:00,
2013-01-15 23:32:00,34.2,32.9,30.20,NW,314,0.0,6.0,95,0.00,,---,0.08,0.00,VWS V14.01,2013-01-16 05:32:00,
2013-01-15 23:35:00,34.2,32.9,30.20,North,355,2.0,6.0,95,0.00,,---,0.08,0.00,VWS V14.01,2013-01-16 05:35:00,
2013-01-15 23:37:00,34.2,32.9,30.20,NNW,336,4.0,9.0,95,0.00,,---,0.08,0.00,VWS V14.01,2013-01-16 05:37:00,
2013-01-15 23:38:00,34.2,32.9,30.20,NW,304,3.0,9.0,95,0.00,,---,0.08,0.00,VWS V14.01,2013-01-16 05:38:00,
2013-01-15 23:39:00,34.2,32.9,30.20,NNW,329,3.0,9.0,95,0.00,,---,0.08,0.00,VWS V14.01,2013-01-16 05:39:00,
2013-01-15 23:43:00,34.2,32.9,30.20,NW,318,4.0,9.0,95,0.00,,---,0.08,0.00,VWS V14.01,2013-01-16 05:43:00,
2013-01-15 23:44:00,34.2,32.9,30.20,NNW,329,4.0,9.0,95,0.00,,---,0.08,0.00,VWS V14.01,2013-01-16 05:44:00,
2013-01-15 23:49:00,34.2,32.9,30.21,WNW,302,3.0,9.0,95,0.00,,---,0.08,0.00,VWS V14.01,2013-01-16 05:49:00,
2013-01-15 23:50:00,34.2,32.9,30.21,NW,316,1.0,9.0,95,0.00,,---,0.08,0.00,VWS V14.01,2013-01-16 05:50:00,
2013-01-15 23:54:00,34.2,32.9,30.21,North,355,3.0,9.0,95,0.00,,---,0.08,0.00,VWS V14.01,2013-01-16 05:54:00,
2013-01-15 23:55:00,34.2,32.9,30.21,NNW,340,3.0,9.0,95,0.00,,---,0.08,0.00,VWS V14.01,2013-01-16 05:55:00,
2013-01-15 23:56:00,34.3,33.0,30.21,NNW,343,3.0,9.0,95,0.00,,---,0.08,0.00,VWS V14.01,2013-01-16 05:56:00,
2013-01-15 23:59:00,34.3,33.0,30.20,North,355,9.0,9.0,95,0.00,,---,0.08,0.00,VWS V14.01,2013-01-16 05:59:00,